Wetterdaten: Dienstag, 28.02.2017
Datum Zeit Temp. Aussen Temp. o. S. +5cm Feuchte Auss BlattFeu 1 Luftdruck Regen Sonnenschein Regendauer Solar Windben Empfang
28.02.2017 00:00 7,7 C 7,2 C 6,1 C 81 % 0 lf 989,1 hPa 0,0 l/m 0 min 0 min 0 W/m 16,7 km/h (3 Bft) 91,49 %
28.02.2017 00:02 7,6 C 7,2 C 5,6 C 81 % 0 lf 989,2 hPa 0,0 l/m 0 min 0 min 0 W/m 33,5 km/h (5 Bft) 91,67 %
28.02.2017 00:05 7,5 C 7,2 C 5,6 C 81 % 0 lf 989,2 hPa 0,0 l/m 0 min 0 min 0 W/m 31,4 km/h (5 Bft) 93,24 %
28.02.2017 00:06 7,4 C 7,2 C 5,6 C 81 % 0 lf 989,2 hPa 0,0 l/m 0 min 0 min 0 W/m 29,3 km/h (5 Bft) 100,00 %
28.02.2017 00:08 7,4 C 7,2 C 5,6 C 81 % 0 lf 989,3 hPa 0,0 l/m 0 min 0 min 0 W/m 27,2 km/h (4 Bft) 95,74 %
28.02.2017 00:10 7,3 C 7,2 C 5,6 C 81 % 0 lf 989,4 hPa 0,0 l/m 0 min 0 min 0 W/m 35,6 km/h (5 Bft) 95,74 %
28.02.2017 00:12 7,2 C 7,2 C 5,6 C 80 % 0 lf 989,6 hPa 0,0 l/m 0 min 0 min 0 W/m 31,4 km/h (5 Bft) 95,74 %
28.02.2017 00:14 7,2 C 7,2 C 5,6 C 80 % 0 lf 989,6 hPa 0,0 l/m 0 min 0 min 0 W/m 27,2 km/h (4 Bft) 91,49 %
28.02.2017 00:16 7,2 C 7,2 C 5,6 C 80 % 0 lf 989,8 hPa 0,0 l/m 0 min 0 min 0 W/m 25,1 km/h (4 Bft) 89,36 %
28.02.2017 00:18 7,2 C 7,2 C 5,6 C 80 % 0 lf 989,8 hPa 0,0 l/m 0 min 0 min 0 W/m 20,9 km/h (4 Bft) 91,30 %
28.02.2017 00:20 7,1 C 7,2 C 5,6 C 79 % 0 lf 989,9 hPa 0,0 l/m 0 min 0 min 0 W/m 29,3 km/h (5 Bft) 95,74 %
28.02.2017 00:22 7,1 C 7,2 C 5,0 C 79 % 0 lf 990,0 hPa 0,0 l/m 0 min 0 min 0 W/m 35,6 km/h (5 Bft) 97,87 %
28.02.2017 00:24 7,1 C 7,2 C 5,0 C 79 % 0 lf 989,9 hPa 0,0 l/m 0 min 0 min 0 W/m 27,2 km/h (4 Bft) 95,74 %
28.02.2017 00:26 7,1 C 7,2 C 5,0 C 79 % 0 lf 989,9 hPa 0,0 l/m 0 min 0 min 0 W/m 27,2 km/h (4 Bft) 95,74 %
28.02.2017 00:28 7,0 C 7,2 C 5,0 C 78 % 0 lf 989,9 hPa 0,0 l/m 0 min 0 min 0 W/m 20,9 km/h (4 Bft) 95,65 %
28.02.2017 00:30 7,0 C 7,2 C 5,0 C 78 % 0 lf 989,9 hPa 0,0 l/m 0 min 0 min 0 W/m 25,1 km/h (4 Bft) 95,74 %
28.02.2017 00:32 7,0 C 7,2 C 5,0 C 78 % 0 lf 989,7 hPa 0,0 l/m 0 min 0 min 0 W/m 23,0 km/h (4 Bft) 93,62 %
28.02.2017 00:34 6,9 C 7,2 C 5,0 C 78 % 0 lf 989,8 hPa 0,0 l/m 0 min 0 min 0 W/m 20,9 km/h (4 Bft) 100,00 %
28.02.2017 00:36 6,9 C 6,7 C 5,0 C 78 % 0 lf 989,7 hPa 0,0 l/m 0 min 0 min 0 W/m 16,7 km/h (3 Bft) 100,00 %
28.02.2017 00:38 6,9 C 6,7 C 5,0 C 78 % 0 lf 989,6 hPa 0,0 l/m 0 min 0 min 0 W/m 12,6 km/h (3 Bft) 97,87 %
28.02.2017 00:40 6,9 C 6,7 C 4,4 C 78 % 0 lf 989,6 hPa 0,0 l/m 0 min 0 min 0 W/m 14,6 km/h (3 Bft) 100,00 %
28.02.2017 00:42 6,9 C 6,7 C 4,4 C 79 % 0 lf 989,6 hPa 0,0 l/m 0 min 0 min 0 W/m 25,1 km/h (4 Bft) 97,83 %
28.02.2017 00:44 6,8 C 6,7 C 4,4 C 79 % 0 lf 989,7 hPa 0,0 l/m 0 min 0 min 0 W/m 20,9 km/h (4 Bft) 95,74 %
28.02.2017 00:46 6,8 C 6,7 C 4,4 C 79 % 0 lf 989,7 hPa 0,0 l/m 0 min 0 min 0 W/m 25,1 km/h (4 Bft) 100,00 %
28.02.2017 00:48 6,7 C 6,7 C 4,4 C 80 % 0 lf 989,7 hPa 0,0 l/m 0 min 0 min 0 W/m 16,7 km/h (3 Bft) 100,00 %
28.02.2017 00:50 6,7 C 6,7 C 5,0 C 80 % 0 lf 989,6 hPa 0,0 l/m 0 min 0 min 0 W/m 23,0 km/h (4 Bft) 100,00 %
28.02.2017 00:52 6,7 C 6,7 C 5,0 C 80 % 0 lf 989,6 hPa 0,0 l/m 0 min 2 min 0 W/m 23,0 km/h (4 Bft) 89,13 %
28.02.2017 00:54 6,7 C 6,7 C 5,0 C 81 % 0 lf 989,6 hPa 0,0 l/m 0 min 2 min 0 W/m 29,3 km/h (5 Bft) 97,87 %
28.02.2017 00:56 6,7 C 6,7 C 4,4 C 81 % 0 lf 989,6 hPa 0,0 l/m 0 min 0 min 0 W/m 27,2 km/h (4 Bft) 97,87 %
28.02.2017 00:58 6,6 C 6,1 C 4,4 C 81 % 0 lf 989,8 hPa 0,0 l/m 0 min 0 min 0 W/m 37,7 km/h (5 Bft) 100,00 %
28.02.2017 01:00 6,6 C 6,1 C 4,4 C 82 % 0 lf 989,7 hPa 0,0 l/m 0 min 0 min 0 W/m 25,1 km/h (4 Bft) 97,87 %
28.02.2017 01:02 6,5 C 6,1 C 4,4 C 82 % 0 lf 989,7 hPa 0,0 l/m 0 min 0 min 0 W/m 37,7 km/h (5 Bft) 97,87 %
28.02.2017 01:04 6,4 C 6,1 C 4,4 C 82 % 0 lf 989,7 hPa 0,0 l/m 0 min 0 min 0 W/m 33,5 km/h (5 Bft) 97,83 %
28.02.2017 01:06 6,4 C 6,1 C 4,4 C 82 % 0 lf 989,6 hPa 0,0 l/m 0 min 0 min 0 W/m 27,2 km/h (4 Bft) 93,62 %
28.02.2017 01:08 6,3 C 6,1 C 3,9 C 82 % 0 lf 989,6 hPa 0,0 l/m 0 min 0 min 0 W/m 23,0 km/h (4 Bft) 97,87 %
28.02.2017 01:10 6,2 C 5,6 C 3,9 C 82 % 0 lf 989,6 hPa 0,0 l/m 0 min 0 min 0 W/m 25,1 km/h (4 Bft) 100,00 %
28.02.2017 01:12 6,1 C 5,6 C 3,9 C 82 % 0 lf 989,5 hPa 0,0 l/m 0 min 0 min 2 W/m 25,1 km/h (4 Bft) 97,87 %
28.02.2017 01:14 6,1 C 5,6 C 3,9 C 82 % 0 lf 989,4 hPa 0,0 l/m 0 min 0 min 2 W/m 25,1 km/h (4 Bft) 97,87 %
28.02.2017 01:16 6,0 C 5,6 C 3,9 C 82 % 0 lf 989,2 hPa 0,0 l/m 0 min 0 min 0 W/m 27,2 km/h (4 Bft) 97,83 %
28.02.2017 01:18 5,9 C 5,6 C 3,9 C 82 % 0 lf 989,1 hPa 0,0 l/m 0 min 0 min 2 W/m 23,0 km/h (4 Bft) 95,74 %
28.02.2017 01:20 5,8 C 5,6 C 3,9 C 83 % 0 lf 989,1 hPa 0,0 l/m 0 min 0 min 0 W/m 33,5 km/h (5 Bft) 95,74 %
28.02.2017 01:22 5,8 C 5,6 C 3,3 C 83 % 0 lf 988,9 hPa 0,0 l/m 0 min 0 min 1 W/m 18,8 km/h (3 Bft) 95,74 %
28.02.2017 01:24 5,7 C 5,0 C 3,3 C 83 % 0 lf 989,0 hPa 0,0 l/m 0 min 0 min 0 W/m 20,9 km/h (4 Bft) 95,74 %
28.02.2017 01:26 5,7 C 5,0 C 3,3 C 83 % 0 lf 989,4 hPa 0,0 l/m 0 min 0 min 0 W/m 27,2 km/h (4 Bft) 97,87 %
28.02.2017 01:28 5,6 C 5,0 C 3,3 C 84 % 0 lf 989,2 hPa 0,0 l/m 0 min 0 min 0 W/m 25,1 km/h (4 Bft) 93,48 %
28.02.2017 01:30 5,6 C 5,0 C 3,3 C 84 % 0 lf 989,2 hPa 0,0 l/m 0 min 0 min 0 W/m 27,2 km/h (4 Bft) 97,87 %
28.02.2017 01:32 5,6 C 5,0 C 3,3 C 84 % 0 lf 989,2 hPa 0,0 l/m 0 min 0 min 0 W/m 23,0 km/h (4 Bft) 97,87 %
28.02.2017 01:34 5,5 C 5,0 C 3,3 C 84 % 0 lf 989,2 hPa 0,0 l/m 0 min 0 min 0 W/m 29,3 km/h (5 Bft) 97,87 %
28.02.2017 01:36 5,5 C 5,0 C 3,3 C 85 % 0 lf 989,1 hPa 0,0 l/m 0 min 0 min 0 W/m 23,0 km/h (4 Bft) 91,49 %
28.02.2017 01:38 5,4 C 5,0 C 3,3 C 85 % 0 lf 989,0 hPa 0,0 l/m 0 min 0 min 0 W/m 23,0 km/h (4 Bft) 91,49 %
28.02.2017 01:40 5,4 C 5,0 C 3,3 C 85 % 0 lf 989,0 hPa 0,0 l/m 0 min 0 min 0 W/m 27,2 km/h (4 Bft) 97,83 %
28.02.2017 01:42 5,4 C 5,0 C 3,3 C 85 % 0 lf 989,1 hPa 0,0 l/m 0 min 0 min 0 W/m 20,9 km/h (4 Bft) 91,49 %
28.02.2017 01:44 5,4 C 5,0 C 3,3 C 85 % 0 lf 989,1 hPa 0,0 l/m 0 min 0 min 0 W/m 20,9 km/h (4 Bft) 91,49 %
28.02.2017 01:46 5,4 C 5,6 C 3,3 C 86 % 0 lf 989,1 hPa 0,0 l/m 0 min 0 min 0 W/m 29,3 km/h (5 Bft) 89,36 %
28.02.2017 01:48 5,4 C 5,6 C 3,3 C 86 % 0 lf 989,1 hPa 0,0 l/m 0 min 0 min 0 W/m 25,1 km/h (4 Bft) 93,62 %
28.02.2017 01:50 5,3 C 5,6 C 3,3 C 86 % 0 lf 989,1 hPa 0,0 l/m 0 min 0 min 0 W/m 20,9 km/h (4 Bft) 91,30 %
28.02.2017 01:52 5,3 C 5,6 C 3,9 C 86 % 0 lf 989,1 hPa 0,0 l/m 0 min 0 min 0 W/m 33,5 km/h (5 Bft) 85,11 %
28.02.2017 01:54 5,3 C 5,6 C 3,3 C 86 % 0 lf 989,1 hPa 0,0 l/m 0 min 0 min 0 W/m 18,8 km/h (3 Bft) 93,62 %
28.02.2017 01:56 5,4 C 5,6 C 3,9 C 86 % 0 lf 989,0 hPa 0,0 l/m 0 min 0 min 0 W/m 29,3 km/h (5 Bft) 95,74 %
28.02.2017 01:58 5,4 C 5,6 C 3,9 C 86 % 0 lf 989,0 hPa 0,0 l/m 0 min 0 min 0 W/m 20,9 km/h (4 Bft) 95,74 %
28.02.2017 02:00 5,4 C 5,6 C 3,9 C 86 % 0 lf 989,1 hPa 0,0 l/m 0 min 0 min 0 W/m 29,3 km/h (5 Bft) 93,62 %
28.02.2017 02:02 5,4 C 5,6 C 3,9 C 86 % 0 lf 989,0 hPa 0,0 l/m 0 min 0 min 0 W/m 23,0 km/h (4 Bft) 91,30 %
28.02.2017 02:04 5,4 C 5,6 C 3,9 C 86 % 0 lf 989,0 hPa 0,0 l/m 0 min 0 min 0 W/m 33,5 km/h (5 Bft) 93,62 %
28.02.2017 02:06 5,4 C 5,6 C 3,9 C 86 % 0 lf 989,1 hPa 0,0 l/m 0 min 0 min 0 W/m 35,6 km/h (5 Bft) 95,74 %
28.02.2017 02:08 5,4 C 6,1 C 3,9 C 87 % 0 lf 988,9 hPa 0,0 l/m 0 min 0 min 0 W/m 29,3 km/h (5 Bft) 91,49 %
28.02.2017 02:10 5,5 C 6,1 C 3,9 C 86 % 0 lf 988,9 hPa 0,0 l/m 0 min 0 min 0 W/m 39,7 km/h (6 Bft) 95,74 %
28.02.2017 02:12 5,5 C 6,1 C 4,4 C 86 % 0 lf 989,1 hPa 0,0 l/m 0 min 0 min 0 W/m 35,6 km/h (5 Bft) 95,74 %
28.02.2017 02:14 5,6 C 6,1 C 3,9 C 86 % 0 lf 989,1 hPa 0,0 l/m 0 min 0 min 0 W/m 37,7 km/h (5 Bft) 97,83 %
28.02.2017 02:16 5,6 C 6,1 C 4,4 C 86 % 0 lf 989,0 hPa 0,0 l/m 0 min 0 min 0 W/m 35,6 km/h (5 Bft) 93,62 %
28.02.2017 02:18 5,7 C 6,1 C 4,4 C 85 % 0 lf 989,0 hPa 0,0 l/m 0 min 0 min 0 W/m 35,6 km/h (5 Bft) 97,87 %
28.02.2017 02:20 5,7 C 6,1 C 4,4 C 85 % 0 lf 989,0 hPa 0,0 l/m 0 min 2 min 0 W/m 31,4 km/h (5 Bft) 93,62 %
28.02.2017 02:22 5,7 C 6,1 C 4,4 C 85 % 1 lf 989,0 hPa 0,0 l/m 0 min 2 min 0 W/m 33,5 km/h (5 Bft) 95,74 %
28.02.2017 02:24 5,8 C 5,6 C 3,9 C 85 % 3 lf 989,1 hPa 0,0 l/m 0 min 2 min 0 W/m 31,4 km/h (5 Bft) 97,87 %
28.02.2017 02:26 5,8 C 5,0 C 3,9 C 85 % 15 lf 989,4 hPa 0,0 l/m 0 min 2 min 0 W/m 41,8 km/h (6 Bft) 97,83 %
28.02.2017 02:28 5,8 C 4,4 C 3,3 C 85 % 15 lf 989,6 hPa 0,0 l/m 0 min 2 min 0 W/m 66,9 km/h (8 Bft) 97,87 %
28.02.2017 02:30 5,7 C 4,4 C 2,8 C 84 % 15 lf 989,8 hPa 0,0 l/m 0 min 2 min 0 W/m 62,8 km/h (8 Bft) 95,74 %
28.02.2017 02:32 5,6 C 4,4 C 2,8 C 84 % 15 lf 989,5 hPa 0,0 l/m 0 min 2 min 0 W/m 54,4 km/h (7 Bft) 89,36 %
28.02.2017 02:34 5,5 C 4,4 C 2,8 C 84 % 15 lf 989,4 hPa 0,0 l/m 0 min 2 min 0 W/m 41,8 km/h (6 Bft) 97,87 %
28.02.2017 02:36 5,4 C 4,4 C 2,8 C 84 % 15 lf 989,5 hPa 0,0 l/m 0 min 2 min 0 W/m 58,6 km/h (7 Bft) 100,00 %
28.02.2017 02:38 5,3 C 3,9 C 2,8 C 84 % 15 lf 989,5 hPa 0,0 l/m 0 min 2 min 0 W/m 41,8 km/h (6 Bft) 97,83 %
28.02.2017 02:40 5,2 C 3,9 C 2,2 C 84 % 15 lf 989,4 hPa 0,2 l/m 0 min 2 min 0 W/m 54,4 km/h (7 Bft) 97,87 %
28.02.2017 02:42 5,1 C 4,4 C 2,2 C 85 % 15 lf 989,4 hPa 0,0 l/m 0 min 2 min 0 W/m 48,1 km/h (6 Bft) 100,00 %
28.02.2017 02:44 5,0 C 4,4 C 2,2 C 85 % 15 lf 989,2 hPa 0,0 l/m 0 min 2 min 0 W/m 35,6 km/h (5 Bft) 97,87 %
28.02.2017 02:46 4,9 C 4,4 C 2,2 C 85 % 15 lf 989,0 hPa 0,0 l/m 0 min 2 min 0 W/m 37,7 km/h (5 Bft) 100,00 %
28.02.2017 02:48 4,9 C 4,4 C 2,2 C 85 % 15 lf 989,1 hPa 0,0 l/m 0 min 2 min 0 W/m 41,8 km/h (6 Bft) 97,87 %
28.02.2017 02:50 4,9 C 4,4 C 2,2 C 85 % 15 lf 989,1 hPa 0,0 l/m 0 min 2 min 0 W/m 35,6 km/h (5 Bft) 97,83 %
28.02.2017 02:52 4,9 C 5,0 C 2,2 C 84 % 15 lf 989,1 hPa 0,0 l/m 0 min 2 min 0 W/m 39,7 km/h (6 Bft) 100,00 %
28.02.2017 02:54 4,9 C 5,0 C 2,2 C 84 % 15 lf 989,2 hPa 0,0 l/m 0 min 2 min 0 W/m 43,9 km/h (6 Bft) 97,87 %
28.02.2017 02:56 5,0 C 5,0 C 2,8 C 84 % 15 lf 989,2 hPa 0,0 l/m 0 min 2 min 0 W/m 39,7 km/h (6 Bft) 93,62 %
28.02.2017 02:58 5,0 C 5,0 C 2,8 C 84 % 15 lf 989,1 hPa 0,0 l/m 0 min 2 min 0 W/m 39,7 km/h (6 Bft) 100,00 %
28.02.2017 03:00 5,0 C 5,0 C 2,2 C 83 % 14 lf 989,1 hPa 0,0 l/m 0 min 2 min 0 W/m 39,7 km/h (6 Bft) 97,83 %
28.02.2017 03:02 5,1 C 5,0 C 2,8 C 83 % 13 lf 989,1 hPa 0,0 l/m 0 min 2 min 0 W/m 48,1 km/h (6 Bft) 100,00 %
28.02.2017 03:04 5,1 C 5,0 C 2,8 C 83 % 9 lf 989,1 hPa 0,0 l/m 0 min 2 min 0 W/m 48,1 km/h (6 Bft) 100,00 %
28.02.2017 03:06 5,1 C 5,0 C 2,8 C 83 % 5 lf 989,2 hPa 0,0 l/m 0 min 2 min 0 W/m 27,2 km/h (4 Bft) 100,00 %
28.02.2017 03:08 5,1 C 5,0 C 2,8 C 83 % 4 lf 989,1 hPa 0,0 l/m 0 min 0 min 0 W/m 39,7 km/h (6 Bft) 100,00 %
28.02.2017 03:10 5,1 C 5,0 C 2,8 C 84 % 2 lf 989,0 hPa 0,0 l/m 0 min 2 min 0 W/m 33,5 km/h (5 Bft) 100,00 %
28.02.2017 03:12 5,1 C 5,0 C 2,8 C 84 % 0 lf 989,0 hPa 0,0 l/m 0 min 2 min 1 W/m 29,3 km/h (5 Bft) 97,83 %
28.02.2017 03:14 5,1 C 5,0 C 2,8 C 84 % 0 lf 989,0 hPa 0,0 l/m 0 min 2 min 2 W/m 18,8 km/h (3 Bft) 97,87 %
28.02.2017 03:16 5,1 C 5,0 C 2,8 C 84 % 0 lf 989,1 hPa 0,0 l/m 0 min 0 min 1 W/m 20,9 km/h (4 Bft) 100,00 %
28.02.2017 03:18 5,0 C 5,0 C 2,8 C 84 % 0 lf 989,0 hPa 0,0 l/m 0 min 0 min 1 W/m 31,4 km/h (5 Bft) 97,87 %
28.02.2017 03:20 5,0 C 5,0 C 2,8 C 84 % 0 lf 989,0 hPa 0,0 l/m 0 min 2 min 0 W/m 23,0 km/h (4 Bft) 97,87 %
28.02.2017 03:22 5,0 C 5,0 C 2,8 C 84 % 0 lf 988,9 hPa 0,0 l/m 0 min 0 min 0 W/m 16,7 km/h (3 Bft) 97,87 %
28.02.2017 03:24 4,9 C 5,0 C 2,8 C 84 % 0 lf 988,9 hPa 0,0 l/m 0 min 0 min 0 W/m 27,2 km/h (4 Bft) 97,83 %
28.02.2017 03:26 4,9 C 5,0 C 2,8 C 84 % 0 lf 989,0 hPa 0,0 l/m 0 min 2 min 0 W/m 41,8 km/h (6 Bft) 91,49 %
28.02.2017 03:28 4,9 C 5,0 C 2,8 C 84 % 0 lf 988,9 hPa 0,0 l/m 0 min 2 min 0 W/m 43,9 km/h (6 Bft) 97,87 %
28.02.2017 03:30 4,9 C 5,0 C 2,8 C 84 % 0 lf 988,9 hPa 0,0 l/m 0 min 0 min 0 W/m 37,7 km/h (5 Bft) 89,36 %
28.02.2017 03:32 4,9 C 5,0 C 2,8 C 83 % 0 lf 988,9 hPa 0,0 l/m 0 min 2 min 0 W/m 18,8 km/h (3 Bft) 93,62 %
28.02.2017 03:34 4,9 C 5,0 C 2,8 C 83 % 0 lf 989,0 hPa 0,0 l/m 0 min 2 min 0 W/m 33,5 km/h (5 Bft) 97,87 %
28.02.2017 03:36 4,9 C 5,0 C 2,8 C 83 % 0 lf 989,0 hPa 0,0 l/m 0 min 0 min 0 W/m 20,9 km/h (4 Bft) 95,65 %
28.02.2017 03:38 4,9 C 5,0 C 2,8 C 83 % 0 lf 989,1 hPa 0,0 l/m 0 min 0 min 0 W/m 33,5 km/h (5 Bft) 95,74 %
28.02.2017 03:40 4,9 C 5,0 C 2,8 C 83 % 0 lf 989,0 hPa 0,0 l/m 0 min 0 min 0 W/m 27,2 km/h (4 Bft) 97,87 %
28.02.2017 03:42 4,9 C 5,0 C 2,8 C 82 % 0 lf 989,1 hPa 0,0 l/m 0 min 0 min 0 W/m 33,5 km/h (5 Bft) 89,36 %
28.02.2017 03:44 4,9 C 5,0 C 2,8 C 82 % 0 lf 989,0 hPa 0,0 l/m 0 min 2 min 0 W/m 25,1 km/h (4 Bft) 93,62 %
28.02.2017 03:46 4,9 C 5,0 C 2,8 C 82 % 0 lf 989,1 hPa 0,0 l/m 0 min 0 min 0 W/m 25,1 km/h (4 Bft) 91,49 %
28.02.2017 03:48 4,9 C 5,0 C 2,8 C 82 % 0 lf 989,1 hPa 0,0 l/m 0 min 0 min 0 W/m 23,0 km/h (4 Bft) 91,30 %
28.02.2017 03:50 4,9 C 5,0 C 2,8 C 82 % 0 lf 989,1 hPa 0,0 l/m 0 min 0 min 0 W/m 18,8 km/h (3 Bft) 93,62 %
28.02.2017 03:52 4,9 C 5,0 C 2,8 C 81 % 0 lf 989,1 hPa 0,0 l/m 0 min 0 min 0 W/m 20,9 km/h (4 Bft) 93,62 %
28.02.2017 03:54 4,9 C 5,6 C 3,3 C 81 % 0 lf 989,2 hPa 0,0 l/m 0 min 0 min 0 W/m 27,2 km/h (4 Bft) 91,49 %
28.02.2017 03:56 5,0 C 5,6 C 3,3 C 81 % 0 lf 989,3 hPa 0,0 l/m 0 min 0 min 0 W/m 25,1 km/h (4 Bft) 93,62 %
28.02.2017 03:58 5,0 C 5,6 C 3,3 C 81 % 0 lf 989,2 hPa 0,0 l/m 0 min 0 min 0 W/m 23,0 km/h (4 Bft) 86,96 %
28.02.2017 04:00 5,1 C 5,6 C 3,3 C 81 % 0 lf 989,2 hPa 0,0 l/m 0 min 0 min 0 W/m 23,0 km/h (4 Bft) 93,62 %
28.02.2017 04:05 5,1 C 5,6 C 3,3 C 81 % 0 lf 989,2 hPa 0,0 l/m 0 min 0 min 0 W/m 25,1 km/h (4 Bft) 100,00 %
28.02.2017 04:06 5,1 C 5,6 C 3,3 C 81 % 0 lf 989,2 hPa 0,0 l/m 0 min 0 min 0 W/m 18,8 km/h (3 Bft) 100,00 %
28.02.2017 04:08 5,2 C 5,6 C 3,3 C 81 % 0 lf 989,3 hPa 0,0 l/m 0 min 0 min 0 W/m 29,3 km/h (5 Bft) 91,49 %
28.02.2017 04:10 5,2 C 5,6 C 3,9 C 81 % 0 lf 989,3 hPa 0,0 l/m 0 min 0 min 0 W/m 23,0 km/h (4 Bft) 97,83 %
28.02.2017 04:12 5,2 C 5,6 C 3,9 C 81 % 0 lf 989,3 hPa 0,0 l/m 0 min 0 min 0 W/m 20,9 km/h (4 Bft) 95,74 %
28.02.2017 04:14 5,2 C 5,6 C 3,3 C 81 % 0 lf 989,2 hPa 0,0 l/m 0 min 0 min 0 W/m 20,9 km/h (4 Bft) 95,74 %
28.02.2017 04:16 5,2 C 5,6 C 3,3 C 81 % 0 lf 989,3 hPa 0,0 l/m 0 min 0 min 0 W/m 23,0 km/h (4 Bft) 93,62 %
28.02.2017 04:18 5,2 C 5,6 C 3,3 C 81 % 0 lf 989,3 hPa 0,0 l/m 0 min 0 min 0 W/m 25,1 km/h (4 Bft) 95,74 %
28.02.2017 04:20 5,2 C 5,0 C 3,3 C 81 % 0 lf 989,3 hPa 0,0 l/m 0 min 0 min 0 W/m 27,2 km/h (4 Bft) 97,87 %
28.02.2017 04:22 5,2 C 5,0 C 3,3 C 81 % 0 lf 989,2 hPa 0,0 l/m 0 min 0 min 0 W/m 31,4 km/h (5 Bft) 97,83 %
28.02.2017 04:24 5,2 C 5,0 C 3,3 C 81 % 0 lf 989,2 hPa 0,0 l/m 0 min 0 min 0 W/m 23,0 km/h (4 Bft) 97,87 %
28.02.2017 04:26 5,2 C 5,0 C 3,3 C 81 % 0 lf 989,2 hPa 0,0 l/m 0 min 0 min 0 W/m 33,5 km/h (5 Bft) 91,49 %
28.02.2017 04:28 5,2 C 5,0 C 3,3 C 81 % 0 lf 989,3 hPa 0,0 l/m 0 min 0 min 0 W/m 18,8 km/h (3 Bft) 93,62 %
28.02.2017 04:30 5,2 C 5,0 C 3,3 C 81 % 0 lf 989,3 hPa 0,0 l/m 0 min 0 min 0 W/m 23,0 km/h (4 Bft) 100,00 %
28.02.2017 04:32 5,2 C 5,6 C 3,3 C 81 % 0 lf 989,3 hPa 0,0 l/m 0 min 0 min 0 W/m 31,4 km/h (5 Bft) 95,74 %
28.02.2017 04:34 5,2 C 5,0 C 3,3 C 81 % 0 lf 989,3 hPa 0,0 l/m 0 min 0 min 0 W/m 29,3 km/h (5 Bft) 97,83 %
28.02.2017 04:36 5,2 C 5,0 C 3,3 C 81 % 0 lf 989,3 hPa 0,0 l/m 0 min 0 min 0 W/m 20,9 km/h (4 Bft) 97,87 %
28.02.2017 04:38 5,1 C 5,0 C 3,3 C 81 % 0 lf 989,3 hPa 0,0 l/m 0 min 0 min 0 W/m 29,3 km/h (5 Bft) 97,87 %
28.02.2017 04:40 5,1 C 5,0 C 3,3 C 81 % 0 lf 989,2 hPa 0,0 l/m 0 min 0 min 0 W/m 29,3 km/h (5 Bft) 95,74 %
28.02.2017 04:42 5,1 C 5,0 C 3,3 C 81 % 0 lf 989,3 hPa 0,0 l/m 0 min 0 min 0 W/m 20,9 km/h (4 Bft) 95,74 %
28.02.2017 04:44 5,1 C 5,0 C 3,3 C 81 % 0 lf 989,2 hPa 0,0 l/m 0 min 0 min 0 W/m 18,8 km/h (3 Bft) 89,36 %
28.02.2017 04:46 5,1 C 5,0 C 3,3 C 81 % 0 lf 989,1 hPa 0,0 l/m 0 min 0 min 0 W/m 18,8 km/h (3 Bft) 97,83 %
28.02.2017 04:48 5,1 C 5,0 C 3,3 C 81 % 0 lf 989,1 hPa 0,0 l/m 0 min 0 min 0 W/m 33,5 km/h (5 Bft) 95,74 %
28.02.2017 04:50 5,1 C 5,0 C 3,3 C 81 % 0 lf 989,3 hPa 0,0 l/m 0 min 0 min 0 W/m 27,2 km/h (4 Bft) 95,74 %
28.02.2017 04:52 5,0 C 5,0 C 2,8 C 81 % 0 lf 989,0 hPa 0,0 l/m 0 min 0 min 0 W/m 18,8 km/h (3 Bft) 95,74 %
28.02.2017 04:54 5,0 C 5,0 C 2,8 C 81 % 0 lf 989,2 hPa 0,0 l/m 0 min 0 min 0 W/m 18,8 km/h (3 Bft) 95,74 %
28.02.2017 04:56 5,0 C 5,0 C 3,3 C 81 % 0 lf 989,1 hPa 0,0 l/m 0 min 0 min 0 W/m 33,5 km/h (5 Bft) 91,30 %
28.02.2017 04:58 5,0 C 5,0 C 2,8 C 81 % 0 lf 989,2 hPa 0,0 l/m 0 min 0 min 0 W/m 25,1 km/h (4 Bft) 95,74 %
28.02.2017 05:00 5,0 C 5,0 C 2,8 C 81 % 0 lf 989,3 hPa 0,0 l/m 0 min 0 min 0 W/m 20,9 km/h (4 Bft) 97,87 %
28.02.2017 05:02 5,0 C 5,0 C 2,8 C 81 % 0 lf 989,3 hPa 0,0 l/m 0 min 0 min 0 W/m 18,8 km/h (3 Bft) 97,87 %
28.02.2017 05:04 4,9 C 5,0 C 2,8 C 81 % 0 lf 989,3 hPa 0,0 l/m 0 min 0 min 0 W/m 27,2 km/h (4 Bft) 93,62 %
28.02.2017 05:06 4,9 C 5,0 C 2,8 C 81 % 0 lf 989,3 hPa 0,0 l/m 0 min 0 min 0 W/m 23,0 km/h (4 Bft) 97,87 %
28.02.2017 05:08 4,9 C 5,0 C 2,8 C 81 % 0 lf 989,2 hPa 0,0 l/m 0 min 0 min 0 W/m 23,0 km/h (4 Bft) 97,83 %
28.02.2017 05:10 4,9 C 5,0 C 2,8 C 81 % 0 lf 989,2 hPa 0,0 l/m 0 min 0 min 0 W/m 23,0 km/h (4 Bft) 95,74 %
28.02.2017 05:12 4,9 C 5,0 C 2,8 C 81 % 0 lf 989,2 hPa 0,0 l/m 0 min 0 min 0 W/m 23,0 km/h (4 Bft) 93,62 %
28.02.2017 05:14 4,9 C 5,0 C 2,8 C 81 % 0 lf 989,3 hPa 0,0 l/m 0 min 0 min 0 W/m 25,1 km/h (4 Bft) 91,49 %
28.02.2017 05:16 4,9 C 5,0 C 2,8 C 81 % 0 lf 989,3 hPa 0,0 l/m 0 min 0 min 0 W/m 16,7 km/h (3 Bft) 95,74 %
28.02.2017 05:18 4,9 C 4,4 C 2,8 C 81 % 0 lf 989,3 hPa 0,0 l/m 0 min 0 min 0 W/m 16,7 km/h (3 Bft) 93,62 %
28.02.2017 05:20 4,8 C 4,4 C 2,8 C 81 % 0 lf 989,3 hPa 0,0 l/m 0 min 0 min 0 W/m 20,9 km/h (4 Bft) 95,65 %
28.02.2017 05:22 4,8 C 4,4 C 2,8 C 81 % 0 lf 989,3 hPa 0,0 l/m 0 min 0 min 0 W/m 16,7 km/h (3 Bft) 93,62 %
28.02.2017 05:24 4,8 C 4,4 C 2,8 C 81 % 0 lf 989,3 hPa 0,0 l/m 0 min 0 min 0 W/m 23,0 km/h (4 Bft) 89,36 %
28.02.2017 05:26 4,8 C 5,0 C 2,8 C 81 % 0 lf 989,4 hPa 0,0 l/m 0 min 0 min 0 W/m 29,3 km/h (5 Bft) 93,62 %
28.02.2017 05:28 4,8 C 5,0 C 2,8 C 81 % 0 lf 989,4 hPa 0,0 l/m 0 min 0 min 0 W/m 25,1 km/h (4 Bft) 95,74 %
28.02.2017 05:30 4,8 C 5,0 C 2,8 C 82 % 0 lf 989,3 hPa 0,0 l/m 0 min 0 min 0 W/m 25,1 km/h (4 Bft) 95,74 %
28.02.2017 05:32 4,8 C 5,0 C 2,8 C 82 % 0 lf 989,3 hPa 0,0 l/m 0 min 0 min 0 W/m 23,0 km/h (4 Bft) 93,48 %
28.02.2017 05:34 4,8 C 5,0 C 2,8 C 82 % 0 lf 989,4 hPa 0,0 l/m 0 min 0 min 0 W/m 27,2 km/h (4 Bft) 95,74 %
28.02.2017 05:36 4,8 C 4,4 C 2,8 C 82 % 0 lf 989,4 hPa 0,0 l/m 0 min 0 min 0 W/m 31,4 km/h (5 Bft) 93,62 %
28.02.2017 05:38 4,8 C 4,4 C 2,8 C 82 % 0 lf 989,3 hPa 0,0 l/m 0 min 0 min 0 W/m 16,7 km/h (3 Bft) 91,49 %
28.02.2017 05:40 4,7 C 4,4 C 2,8 C 82 % 0 lf 989,4 hPa 0,0 l/m 0 min 0 min 0 W/m 20,9 km/h (4 Bft) 97,87 %
28.02.2017 05:42 4,7 C 5,0 C 2,8 C 82 % 0 lf 989,4 hPa 0,0 l/m 0 min 0 min 0 W/m 25,1 km/h (4 Bft) 97,87 %
28.02.2017 05:44 4,7 C 5,0 C 2,8 C 82 % 0 lf 989,3 hPa 0,0 l/m 0 min 0 min 0 W/m 25,1 km/h (4 Bft) 97,83 %
28.02.2017 05:46 4,7 C 5,0 C 3,3 C 82 % 0 lf 989,3 hPa 0,0 l/m 0 min 0 min 0 W/m 27,2 km/h (4 Bft) 100,00 %
28.02.2017 05:48 4,7 C 5,0 C 3,3 C 82 % 0 lf 989,4 hPa 0,0 l/m 0 min 0 min 0 W/m 23,0 km/h (4 Bft) 95,74 %
28.02.2017 05:50 4,8 C 5,0 C 3,3 C 83 % 0 lf 989,5 hPa 0,0 l/m 0 min 0 min 0 W/m 23,0 km/h (4 Bft) 95,74 %
28.02.2017 05:52 4,8 C 5,0 C 3,3 C 83 % 0 lf 989,4 hPa 0,0 l/m 0 min 0 min 0 W/m 25,1 km/h (4 Bft) 95,74 %
28.02.2017 05:54 4,8 C 5,0 C 3,3 C 83 % 0 lf 989,4 hPa 0,0 l/m 0 min 0 min 0 W/m 23,0 km/h (4 Bft) 95,74 %
28.02.2017 05:56 4,8 C 5,0 C 3,3 C 83 % 0 lf 989,4 hPa 0,0 l/m 0 min 0 min 0 W/m 16,7 km/h (3 Bft) 97,83 %
28.02.2017 05:58 4,8 C 5,0 C 3,3 C 83 % 0 lf 989,5 hPa 0,0 l/m 0 min 0 min 0 W/m 29,3 km/h (5 Bft) 95,74 %
28.02.2017 06:00 4,8 C 5,6 C 3,3 C 83 % 0 lf 989,4 hPa 0,0 l/m 0 min 0 min 0 W/m 29,3 km/h (5 Bft) 100,00 %
28.02.2017 06:02 4,8 C 5,6 C 3,3 C 83 % 0 lf 989,5 hPa 0,0 l/m 0 min 0 min 0 W/m 27,2 km/h (4 Bft) 100,00 %
28.02.2017 06:06 4,9 C 5,6 C 3,9 C 82 % 0 lf 989,5 hPa 0,0 l/m 0 min 0 min 0 W/m 37,7 km/h (5 Bft) 98,95 %
28.02.2017 06:08 4,9 C 5,6 C 3,9 C 82 % 0 lf 989,4 hPa 0,0 l/m 0 min 0 min 0 W/m 31,4 km/h (5 Bft) 97,87 %
28.02.2017 06:10 4,9 C 5,6 C 3,9 C 81 % 0 lf 989,4 hPa 0,0 l/m 0 min 0 min 0 W/m 25,1 km/h (4 Bft) 97,87 %
28.02.2017 06:12 5,0 C 5,6 C 3,9 C 81 % 0 lf 989,5 hPa 0,0 l/m 0 min 0 min 0 W/m 29,3 km/h (5 Bft) 97,87 %
28.02.2017 06:14 5,0 C 5,6 C 3,9 C 81 % 0 lf 989,6 hPa 0,0 l/m 0 min 0 min 0 W/m 29,3 km/h (5 Bft) 97,87 %
28.02.2017 06:16 5,1 C 5,6 C 3,9 C 81 % 0 lf 989,6 hPa 0,0 l/m 0 min 0 min 0 W/m 35,6 km/h (5 Bft) 95,74 %
28.02.2017 06:18 5,1 C 5,6 C 3,9 C 80 % 0 lf 989,5 hPa 0,0 l/m 0 min 0 min 0 W/m 23,0 km/h (4 Bft) 97,83 %
28.02.2017 06:20 5,1 C 5,6 C 3,9 C 80 % 0 lf 989,6 hPa 0,0 l/m 0 min 0 min 0 W/m 33,5 km/h (5 Bft) 93,62 %
28.02.2017 06:22 5,1 C 5,6 C 3,9 C 80 % 0 lf 989,5 hPa 0,0 l/m 0 min 0 min 0 W/m 29,3 km/h (5 Bft) 95,74 %
28.02.2017 06:24 5,1 C 5,6 C 3,9 C 79 % 0 lf 989,5 hPa 0,0 l/m 0 min 0 min 0 W/m 37,7 km/h (5 Bft) 95,74 %
28.02.2017 06:26 5,1 C 5,6 C 3,9 C 79 % 0 lf 989,4 hPa 0,0 l/m 0 min 0 min 0 W/m 31,4 km/h (5 Bft) 97,87 %
28.02.2017 06:28 5,2 C 5,6 C 3,9 C 79 % 0 lf 989,5 hPa 0,0 l/m 0 min 0 min 0 W/m 33,5 km/h (5 Bft) 93,62 %
28.02.2017 06:30 5,2 C 5,6 C 3,9 C 78 % 0 lf 989,6 hPa 0,0 l/m 0 min 0 min 0 W/m 50,2 km/h (7 Bft) 97,83 %
28.02.2017 06:32 5,2 C 5,6 C 3,9 C 77 % 0 lf 989,4 hPa 0,0 l/m 0 min 0 min 0 W/m 33,5 km/h (5 Bft) 95,74 %
28.02.2017 06:34 5,2 C 5,6 C 3,9 C 77 % 0 lf 989,4 hPa 0,0 l/m 0 min 0 min 0 W/m 43,9 km/h (6 Bft) 95,74 %
28.02.2017 06:36 5,2 C 5,6 C 3,9 C 77 % 0 lf 989,5 hPa 0,0 l/m 0 min 0 min 0 W/m 39,7 km/h (6 Bft) 95,74 %
28.02.2017 06:38 5,3 C 5,6 C 3,9 C 77 % 0 lf 989,4 hPa 0,0 l/m 0 min 0 min 0 W/m 39,7 km/h (6 Bft) 95,74 %
28.02.2017 06:40 5,3 C 5,6 C 3,9 C 76 % 0 lf 989,5 hPa 0,0 l/m 0 min 0 min 0 W/m 35,6 km/h (5 Bft) 95,74 %
28.02.2017 06:42 5,3 C 5,6 C 3,9 C 76 % 0 lf 989,4 hPa 0,0 l/m 0 min 0 min 0 W/m 35,6 km/h (5 Bft) 97,83 %
28.02.2017 06:44 5,3 C 5,6 C 3,9 C 76 % 0 lf 989,3 hPa 0,0 l/m 0 min 0 min 0 W/m 41,8 km/h (6 Bft) 95,74 %
28.02.2017 06:46 5,3 C 5,6 C 3,9 C 76 % 0 lf 989,5 hPa 0,0 l/m 0 min 0 min 0 W/m 29,3 km/h (5 Bft) 97,87 %
28.02.2017 06:48 5,3 C 5,6 C 3,9 C 76 % 0 lf 989,4 hPa 0,0 l/m 0 min 0 min 0 W/m 35,6 km/h (5 Bft) 97,87 %
28.02.2017 06:50 5,3 C 5,6 C 3,9 C 76 % 0 lf 989,3 hPa 0,0 l/m 0 min 0 min 0 W/m 25,1 km/h (4 Bft) 95,74 %
28.02.2017 06:52 5,3 C 5,6 C 3,9 C 76 % 0 lf 989,5 hPa 0,0 l/m 0 min 0 min 0 W/m 35,6 km/h (5 Bft) 95,74 %
28.02.2017 06:54 5,3 C 5,6 C 3,9 C 76 % 0 lf 989,4 hPa 0,0 l/m 0 min 0 min 0 W/m 33,5 km/h (5 Bft) 100,00 %
28.02.2017 06:56 5,3 C 5,6 C 3,9 C 76 % 0 lf 989,5 hPa 0,0 l/m 0 min 0 min 0 W/m 25,1 km/h (4 Bft) 97,87 %
28.02.2017 06:58 5,3 C 5,6 C 3,9 C 76 % 0 lf 989,6 hPa 0,0 l/m 0 min 0 min 0 W/m 35,6 km/h (5 Bft) 95,74 %
28.02.2017 07:00 5,3 C 5,6 C 3,9 C 76 % 0 lf 989,5 hPa 0,0 l/m 0 min 0 min 0 W/m 43,9 km/h (6 Bft) 91,49 %
28.02.2017 07:02 5,3 C 5,6 C 3,9 C 76 % 0 lf 989,5 hPa 0,0 l/m 0 min 2 min 0 W/m 37,7 km/h (5 Bft) 97,87 %
28.02.2017 07:04 5,3 C 5,6 C 3,9 C 76 % 0 lf 989,6 hPa 0,0 l/m 0 min 0 min 0 W/m 25,1 km/h (4 Bft) 100,00 %
28.02.2017 07:06 5,3 C 5,6 C 3,9 C 76 % 0 lf 989,6 hPa 0,0 l/m 0 min 0 min 0 W/m 35,6 km/h (5 Bft) 100,00 %
28.02.2017 07:08 5,3 C 5,6 C 3,9 C 76 % 0 lf 989,7 hPa 0,0 l/m 0 min 0 min 0 W/m 29,3 km/h (5 Bft) 100,00 %
28.02.2017 07:10 5,3 C 5,6 C 3,9 C 76 % 0 lf 989,6 hPa 0,0 l/m 0 min 0 min 0 W/m 43,9 km/h (6 Bft) 97,87 %
28.02.2017 07:12 5,3 C 5,6 C 3,9 C 76 % 0 lf 989,7 hPa 0,0 l/m 0 min 0 min 0 W/m 39,7 km/h (6 Bft) 95,74 %
28.02.2017 07:14 5,3 C 5,6 C 3,9 C 76 % 0 lf 989,6 hPa 0,0 l/m 0 min 0 min 0 W/m 33,5 km/h (5 Bft) 95,74 %
28.02.2017 07:16 5,3 C 5,6 C 3,9 C 76 % 0 lf 989,7 hPa 0,0 l/m 0 min 0 min 0 W/m 39,7 km/h (6 Bft) 97,87 %
28.02.2017 07:18 5,3 C 5,6 C 3,9 C 76 % 0 lf 989,6 hPa 0,0 l/m 0 min 0 min 0 W/m 39,7 km/h (6 Bft) 91,30 %
28.02.2017 07:20 5,3 C 5,6 C 3,9 C 76 % 0 lf 989,8 hPa 0,0 l/m 0 min 0 min 0 W/m 33,5 km/h (5 Bft) 97,87 %
28.02.2017 07:22 5,3 C 5,6 C 3,9 C 76 % 0 lf 989,7 hPa 0,0 l/m 0 min 0 min 0 W/m 29,3 km/h (5 Bft) 97,87 %
28.02.2017 07:24 5,3 C 5,6 C 3,9 C 76 % 0 lf 989,7 hPa 0,0 l/m 0 min 0 min 0 W/m 31,4 km/h (5 Bft) 95,74 %
28.02.2017 07:26 5,3 C 5,6 C 3,9 C 76 % 0 lf 989,7 hPa 0,0 l/m 0 min 0 min 0 W/m 46,0 km/h (6 Bft) 93,62 %
28.02.2017 07:28 5,3 C 5,6 C 3,9 C 76 % 0 lf 989,8 hPa 0,0 l/m 0 min 0 min 0 W/m 33,5 km/h (5 Bft) 95,65 %
28.02.2017 07:30 5,3 C 5,6 C 3,9 C 76 % 0 lf 989,8 hPa 0,0 l/m 0 min 0 min 0 W/m 27,2 km/h (4 Bft) 95,74 %
28.02.2017 07:32 5,3 C 5,6 C 3,9 C 76 % 0 lf 989,8 hPa 0,0 l/m 0 min 0 min 0 W/m 31,4 km/h (5 Bft) 97,87 %
28.02.2017 07:34 5,3 C 5,6 C 3,9 C 76 % 0 lf 989,7 hPa 0,0 l/m 0 min 0 min 0 W/m 39,7 km/h (6 Bft) 93,62 %
28.02.2017 07:36 5,3 C 5,6 C 3,9 C 76 % 0 lf 989,9 hPa 0,0 l/m 0 min 0 min 2 W/m 29,3 km/h (5 Bft) 97,87 %
28.02.2017 07:38 5,3 C 5,6 C 3,9 C 76 % 0 lf 989,8 hPa 0,0 l/m 0 min 0 min 2 W/m 35,6 km/h (5 Bft) 95,74 %
28.02.2017 07:40 5,3 C 5,6 C 3,9 C 76 % 0 lf 989,7 hPa 0,0 l/m 0 min 0 min 4 W/m 46,0 km/h (6 Bft) 100,00 %
28.02.2017 07:42 5,3 C 5,6 C 3,9 C 76 % 0 lf 989,9 hPa 0,0 l/m 0 min 0 min 4 W/m 29,3 km/h (5 Bft) 95,74 %
28.02.2017 07:44 5,3 C 5,6 C 3,9 C 76 % 0 lf 990,0 hPa 0,0 l/m 0 min 0 min 5 W/m 39,7 km/h (6 Bft) 97,87 %
28.02.2017 07:46 5,3 C 5,6 C 3,9 C 76 % 0 lf 990,0 hPa 0,0 l/m 0 min 0 min 8 W/m 37,7 km/h (5 Bft) 100,00 %
28.02.2017 07:48 5,3 C 5,6 C 3,9 C 76 % 0 lf 989,9 hPa 0,0 l/m 0 min 0 min 9 W/m 27,2 km/h (4 Bft) 100,00 %
28.02.2017 07:50 5,3 C 5,6 C 3,9 C 76 % 0 lf 990,0 hPa 0,0 l/m 0 min 0 min 14 W/m 29,3 km/h (5 Bft) 89,36 %
28.02.2017 07:52 5,3 C 5,6 C 3,9 C 76 % 0 lf 990,0 hPa 0,0 l/m 0 min 0 min 16 W/m 29,3 km/h (5 Bft) 97,83 %
28.02.2017 07:54 5,3 C 5,6 C 3,9 C 76 % 0 lf 990,0 hPa 0,0 l/m 0 min 0 min 18 W/m 33,5 km/h (5 Bft) 97,87 %
28.02.2017 07:56 5,3 C 5,6 C 3,9 C 76 % 0 lf 990,1 hPa 0,0 l/m 0 min 0 min 18 W/m 27,2 km/h (4 Bft) 97,87 %
28.02.2017 07:58 5,3 C 5,6 C 3,9 C 76 % 0 lf 990,1 hPa 0,0 l/m 0 min 0 min 16 W/m 31,4 km/h (5 Bft) 95,74 %
28.02.2017 08:00 5,3 C 5,6 C 3,9 C 77 % 0 lf 990,1 hPa 0,0 l/m 0 min 0 min 16 W/m 37,7 km/h (5 Bft) 95,74 %
28.02.2017 08:02 5,3 C 5,6 C 3,9 C 76 % 0 lf 990,1 hPa 0,0 l/m 0 min 0 min 14 W/m 27,2 km/h (4 Bft) 93,62 %
28.02.2017 08:04 5,3 C 5,6 C 3,9 C 77 % 0 lf 990,1 hPa 0,0 l/m 0 min 0 min 15 W/m 27,2 km/h (4 Bft) 95,65 %
28.02.2017 08:06 5,3 C 5,6 C 3,9 C 77 % 0 lf 990,1 hPa 0,0 l/m 0 min 0 min 18 W/m 31,4 km/h (5 Bft) 95,74 %
28.02.2017 08:08 5,3 C 5,6 C 3,9 C 77 % 0 lf 990,2 hPa 0,0 l/m 0 min 0 min 20 W/m 29,3 km/h (5 Bft) 89,36 %
28.02.2017 08:10 5,3 C 5,6 C 3,9 C 77 % 0 lf 990,0 hPa 0,0 l/m 0 min 0 min 23 W/m 29,3 km/h (5 Bft) 93,62 %
28.02.2017 08:12 5,3 C 5,6 C 4,4 C 77 % 0 lf 990,0 hPa 0,0 l/m 0 min 0 min 28 W/m 31,4 km/h (5 Bft) 93,62 %
28.02.2017 08:14 5,3 C 5,6 C 4,4 C 77 % 0 lf 990,0 hPa 0,0 l/m 0 min 0 min 28 W/m 39,7 km/h (6 Bft) 95,74 %
28.02.2017 08:16 5,4 C 6,1 C 4,4 C 77 % 0 lf 990,1 hPa 0,0 l/m 0 min 0 min 34 W/m 29,3 km/h (5 Bft) 95,65 %
28.02.2017 08:18 5,4 C 6,1 C 4,4 C 77 % 0 lf 990,0 hPa 0,0 l/m 0 min 0 min 48 W/m 37,7 km/h (5 Bft) 95,74 %
28.02.2017 08:20 5,4 C 6,1 C 4,4 C 77 % 0 lf 989,9 hPa 0,0 l/m 0 min 0 min 46 W/m 35,6 km/h (5 Bft) 95,74 %
28.02.2017 08:22 5,4 C 6,1 C 4,4 C 76 % 0 lf 990,0 hPa 0,0 l/m 0 min 0 min 40 W/m 23,0 km/h (4 Bft) 93,62 %
28.02.2017 08:24 5,4 C 6,1 C 4,4 C 77 % 0 lf 990,0 hPa 0,0 l/m 0 min 0 min 47 W/m 23,0 km/h (4 Bft) 91,49 %
28.02.2017 08:26 5,4 C 6,1 C 4,4 C 77 % 0 lf 989,9 hPa 0,0 l/m 0 min 0 min 62 W/m 33,5 km/h (5 Bft) 84,78 %
28.02.2017 08:28 5,4 C 6,1 C 4,4 C 77 % 0 lf 990,0 hPa 0,0 l/m 0 min 0 min 75 W/m 25,1 km/h (4 Bft) 93,62 %
28.02.2017 08:30 5,5 C 6,1 C 5,0 C 77 % 0 lf 990,0 hPa 0,0 l/m 0 min 0 min 87 W/m 31,4 km/h (5 Bft) 95,74 %
28.02.2017 08:32 5,5 C 6,1 C 5,0 C 77 % 0 lf 990,0 hPa 0,0 l/m 0 min 0 min 81 W/m 27,2 km/h (4 Bft) 95,74 %
28.02.2017 08:34 5,6 C 6,7 C 5,0 C 77 % 0 lf 990,1 hPa 0,0 l/m 0 min 0 min 87 W/m 27,2 km/h (4 Bft) 95,74 %
28.02.2017 08:36 5,6 C 6,1 C 5,0 C 77 % 0 lf 990,1 hPa 0,0 l/m 0 min 0 min 82 W/m 31,4 km/h (5 Bft) 91,49 %
28.02.2017 08:38 5,6 C 6,1 C 5,0 C 77 % 0 lf 990,2 hPa 0,0 l/m 0 min 0 min 82 W/m 41,8 km/h (6 Bft) 95,65 %
28.02.2017 08:40 5,7 C 6,1 C 5,0 C 76 % 0 lf 990,1 hPa 0,0 l/m 0 min 0 min 78 W/m 48,1 km/h (6 Bft) 95,74 %
28.02.2017 08:42 5,7 C 6,7 C 5,0 C 76 % 0 lf 990,1 hPa 0,0 l/m 2 min 0 min 112 W/m 35,6 km/h (5 Bft) 97,87 %
28.02.2017 08:44 5,7 C 6,7 C 5,0 C 76 % 0 lf 990,1 hPa 0,0 l/m 2 min 0 min 123 W/m 35,6 km/h (5 Bft) 93,62 %
28.02.2017 08:46 5,7 C 6,7 C 5,0 C 76 % 0 lf 990,2 hPa 0,0 l/m 0 min 0 min 110 W/m 35,6 km/h (5 Bft) 91,49 %
28.02.2017 08:48 5,8 C 6,7 C 5,0 C 76 % 0 lf 990,2 hPa 0,0 l/m 0 min 0 min 98 W/m 50,2 km/h (7 Bft) 95,74 %
28.02.2017 08:50 5,8 C 6,7 C 5,0 C 76 % 0 lf 990,2 hPa 0,0 l/m 0 min 0 min 104 W/m 48,1 km/h (6 Bft) 93,48 %
28.02.2017 08:52 5,8 C 6,7 C 5,0 C 76 % 0 lf 990,1 hPa 0,0 l/m 2 min 0 min 124 W/m 29,3 km/h (5 Bft) 95,74 %
28.02.2017 08:54 5,8 C 6,7 C 5,6 C 76 % 0 lf 990,2 hPa 0,0 l/m 2 min 0 min 131 W/m 43,9 km/h (6 Bft) 93,62 %
28.02.2017 08:56 5,9 C 7,2 C 5,6 C 76 % 0 lf 990,2 hPa 0,0 l/m 2 min 0 min 136 W/m 25,1 km/h (4 Bft) 91,49 %
28.02.2017 08:58 5,9 C 7,2 C 5,6 C 77 % 0 lf 990,2 hPa 0,0 l/m 2 min 0 min 133 W/m 18,8 km/h (3 Bft) 95,74 %
28.02.2017 09:00 5,9 C 7,2 C 5,6 C 77 % 0 lf 990,1 hPa 0,0 l/m 2 min 0 min 151 W/m 33,5 km/h (5 Bft) 93,62 %
28.02.2017 09:02 5,9 C 7,2 C 5,6 C 77 % 0 lf 990,2 hPa 0,0 l/m 2 min 0 min 168 W/m 43,9 km/h (6 Bft) 93,48 %
28.02.2017 09:04 6,0 C 7,8 C 5,6 C 77 % 0 lf 990,2 hPa 0,0 l/m 2 min 0 min 161 W/m 50,2 km/h (7 Bft) 93,62 %
28.02.2017 09:06 6,0 C 7,2 C 5,6 C 76 % 0 lf 990,2 hPa 0,0 l/m 2 min 0 min 140 W/m 50,2 km/h (7 Bft) 91,49 %
28.02.2017 09:08 6,1 C 7,2 C 5,6 C 76 % 0 lf 990,0 hPa 0,0 l/m 0 min 0 min 132 W/m 27,2 km/h (4 Bft) 91,49 %
28.02.2017 09:10 6,1 C 7,2 C 5,6 C 76 % 0 lf 990,1 hPa 0,0 l/m 0 min 0 min 137 W/m 39,7 km/h (6 Bft) 95,74 %
28.02.2017 09:12 6,1 C 7,8 C 5,6 C 76 % 0 lf 990,1 hPa 0,0 l/m 0 min 0 min 137 W/m 46,0 km/h (6 Bft) 95,74 %
28.02.2017 09:14 6,2 C 8,3 C 6,7 C 76 % 0 lf 990,2 hPa 0,0 l/m 2 min 0 min 165 W/m 35,6 km/h (5 Bft) 93,48 %
28.02.2017 09:16 6,2 C 9,4 C 6,7 C 76 % 0 lf 990,3 hPa 0,0 l/m 2 min 0 min 178 W/m 41,8 km/h (6 Bft) 89,36 %
28.02.2017 09:18 6,2 C 8,9 C 6,7 C 76 % 0 lf 990,2 hPa 0,0 l/m 2 min 0 min 185 W/m 41,8 km/h (6 Bft) 93,62 %
28.02.2017 09:20 6,3 C 8,3 C 6,1 C 76 % 0 lf 990,2 hPa 0,0 l/m 2 min 0 min 163 W/m 33,5 km/h (5 Bft) 93,62 %
28.02.2017 09:22 6,3 C 7,8 C 6,1 C 75 % 0 lf 990,2 hPa 0,0 l/m 0 min 0 min 141 W/m 41,8 km/h (6 Bft) 93,62 %
28.02.2017 09:24 6,4 C 7,8 C 6,1 C 75 % 0 lf 990,2 hPa 0,0 l/m 0 min 0 min 139 W/m 37,7 km/h (5 Bft) 95,65 %
28.02.2017 09:26 6,4 C 7,2 C 6,1 C 75 % 0 lf 990,2 hPa 0,0 l/m 0 min 0 min 136 W/m 37,7 km/h (5 Bft) 93,62 %
28.02.2017 09:28 6,4 C 7,2 C 6,1 C 75 % 0 lf 990,2 hPa 0,0 l/m 0 min 0 min 136 W/m 29,3 km/h (5 Bft) 89,36 %
28.02.2017 09:30 6,4 C 7,2 C 6,1 C 75 % 0 lf 990,2 hPa 0,0 l/m 0 min 0 min 147 W/m 31,4 km/h (5 Bft) 93,62 %
28.02.2017 09:32 6,4 C 7,2 C 6,1 C 75 % 0 lf 990,2 hPa 0,0 l/m 0 min 0 min 140 W/m 31,4 km/h (5 Bft) 93,62 %
28.02.2017 09:34 6,4 C 7,2 C 6,1 C 75 % 0 lf 990,2 hPa 0,0 l/m 0 min 0 min 140 W/m 46,0 km/h (6 Bft) 95,74 %
28.02.2017 09:36 6,4 C 7,2 C 6,1 C 75 % 0 lf 990,3 hPa 0,0 l/m 0 min 0 min 130 W/m 39,7 km/h (6 Bft) 95,65 %
28.02.2017 09:38 6,4 C 7,2 C 6,1 C 75 % 0 lf 990,2 hPa 0,0 l/m 0 min 0 min 121 W/m 39,7 km/h (6 Bft) 93,62 %
28.02.2017 09:40 6,4 C 7,2 C 6,1 C 74 % 0 lf 990,2 hPa 0,0 l/m 0 min 0 min 101 W/m 35,6 km/h (5 Bft) 97,87 %
28.02.2017 09:42 6,4 C 7,2 C 6,1 C 74 % 0 lf 990,2 hPa 0,0 l/m 0 min 0 min 118 W/m 46,0 km/h (6 Bft) 97,87 %
28.02.2017 09:44 6,4 C 7,2 C 6,1 C 74 % 0 lf 990,1 hPa 0,0 l/m 0 min 0 min 136 W/m 46,0 km/h (6 Bft) 97,87 %
28.02.2017 09:46 6,4 C 7,2 C 5,6 C 74 % 0 lf 990,2 hPa 0,0 l/m 0 min 0 min 134 W/m 35,6 km/h (5 Bft) 97,87 %
28.02.2017 09:48 6,4 C 7,8 C 6,1 C 74 % 0 lf 990,2 hPa 0,0 l/m 0 min 0 min 158 W/m 39,7 km/h (6 Bft) 97,83 %
28.02.2017 09:50 6,4 C 7,8 C 6,1 C 74 % 0 lf 990,1 hPa 0,0 l/m 0 min 0 min 142 W/m 48,1 km/h (6 Bft) 95,74 %
28.02.2017 09:52 6,4 C 7,8 C 6,1 C 74 % 0 lf 990,1 hPa 0,0 l/m 0 min 0 min 149 W/m 43,9 km/h (6 Bft) 97,87 %
28.02.2017 09:54 6,4 C 8,3 C 6,1 C 74 % 0 lf 990,1 hPa 0,0 l/m 2 min 0 min 204 W/m 37,7 km/h (5 Bft) 100,00 %
28.02.2017 09:56 6,4 C 8,9 C 6,7 C 74 % 0 lf 990,1 hPa 0,0 l/m 0 min 0 min 175 W/m 35,6 km/h (5 Bft) 97,87 %
28.02.2017 09:58 6,4 C 10,0 C 6,7 C 75 % 0 lf 990,1 hPa 0,0 l/m 2 min 0 min 392 W/m 31,4 km/h (5 Bft) 97,87 %
28.02.2017 10:00 6,5 C 10,0 C 7,2 C 75 % 0 lf 990,1 hPa 0,0 l/m 2 min 0 min 413 W/m 25,1 km/h (4 Bft) 97,83 %
28.02.2017 10:02 6,6 C 9,4 C 6,7 C 75 % 0 lf 990,2 hPa 0,0 l/m 2 min 0 min 333 W/m 41,8 km/h (6 Bft) 97,87 %
28.02.2017 10:04 6,7 C 10,0 C 7,2 C 74 % 0 lf 990,2 hPa 0,0 l/m 2 min 0 min 228 W/m 46,0 km/h (6 Bft) 97,87 %
28.02.2017 10:06 6,7 C 9,4 C 6,7 C 74 % 0 lf 990,0 hPa 0,0 l/m 2 min 0 min 373 W/m 35,6 km/h (5 Bft) 97,87 %
28.02.2017 10:08 6,8 C 8,9 C 6,7 C 73 % 0 lf 990,2 hPa 0,0 l/m 0 min 0 min 160 W/m 41,8 km/h (6 Bft) 97,87 %
28.02.2017 10:10 6,7 C 8,3 C 6,1 C 73 % 0 lf 990,1 hPa 0,0 l/m 0 min 0 min 156 W/m 48,1 km/h (6 Bft) 100,00 %
28.02.2017 10:12 6,7 C 8,3 C 6,7 C 73 % 0 lf 990,0 hPa 0,0 l/m 0 min 0 min 186 W/m 52,3 km/h (7 Bft) 100,00 %
28.02.2017 10:14 6,7 C 8,3 C 6,7 C 73 % 0 lf 990,1 hPa 0,0 l/m 0 min 0 min 187 W/m 46,0 km/h (6 Bft) 100,00 %
28.02.2017 10:16 6,7 C 7,8 C 6,7 C 73 % 0 lf 990,0 hPa 0,0 l/m 0 min 0 min 162 W/m 46,0 km/h (6 Bft) 100,00 %
28.02.2017 10:18 6,8 C 7,8 C 6,7 C 73 % 0 lf 990,1 hPa 0,0 l/m 0 min 0 min 131 W/m 39,7 km/h (6 Bft) 97,87 %
28.02.2017 10:20 6,7 C 7,8 C 6,7 C 73 % 0 lf 990,1 hPa 0,0 l/m 0 min 0 min 127 W/m 41,8 km/h (6 Bft) 95,74 %
28.02.2017 10:22 6,7 C 7,8 C 6,7 C 73 % 0 lf 990,1 hPa 0,0 l/m 0 min 0 min 122 W/m 31,4 km/h (5 Bft) 100,00 %
28.02.2017 10:24 6,8 C 7,8 C 6,1 C 73 % 0 lf 990,2 hPa 0,0 l/m 0 min 0 min 120 W/m 48,1 km/h (6 Bft) 100,00 %
28.02.2017 10:26 6,7 C 7,8 C 6,1 C 73 % 0 lf 990,2 hPa 0,0 l/m 0 min 0 min 126 W/m 41,8 km/h (6 Bft) 100,00 %
28.02.2017 10:28 6,7 C 7,8 C 6,1 C 73 % 0 lf 990,1 hPa 0,0 l/m 0 min 0 min 148 W/m 43,9 km/h (6 Bft) 95,74 %
28.02.2017 10:30 6,8 C 7,8 C 6,7 C 73 % 0 lf 990,2 hPa 0,0 l/m 0 min 0 min 162 W/m 46,0 km/h (6 Bft) 95,74 %
28.02.2017 10:32 6,8 C 7,8 C 6,7 C 73 % 0 lf 990,1 hPa 0,0 l/m 0 min 0 min 181 W/m 46,0 km/h (6 Bft) 95,74 %
28.02.2017 10:34 6,8 C 8,3 C 6,7 C 72 % 0 lf 990,1 hPa 0,0 l/m 0 min 0 min 177 W/m 52,3 km/h (7 Bft) 100,00 %
28.02.2017 10:36 6,8 C 8,3 C 6,7 C 72 % 0 lf 990,1 hPa 0,0 l/m 0 min 0 min 170 W/m 37,7 km/h (5 Bft) 100,00 %
28.02.2017 10:38 6,8 C 8,9 C 6,7 C 73 % 0 lf 990,2 hPa 0,0 l/m 0 min 0 min 219 W/m 35,6 km/h (5 Bft) 95,74 %
28.02.2017 10:40 6,9 C 9,4 C 7,2 C 72 % 0 lf 990,3 hPa 0,0 l/m 0 min 0 min 215 W/m 41,8 km/h (6 Bft) 95,74 %
28.02.2017 10:42 7,0 C 8,9 C 7,2 C 72 % 0 lf 990,2 hPa 0,0 l/m 0 min 0 min 215 W/m 50,2 km/h (7 Bft) 97,87 %
28.02.2017 10:44 7,0 C 8,9 C 7,2 C 72 % 0 lf 990,1 hPa 0,0 l/m 0 min 0 min 216 W/m 46,0 km/h (6 Bft) 93,62 %
28.02.2017 10:46 7,1 C 8,9 C 7,2 C 71 % 0 lf 990,3 hPa 0,0 l/m 0 min 0 min 212 W/m 46,0 km/h (6 Bft) 97,87 %
28.02.2017 10:48 7,1 C 8,3 C 6,7 C 71 % 0 lf 990,2 hPa 0,0 l/m 0 min 0 min 156 W/m 35,6 km/h (5 Bft) 95,65 %
28.02.2017 10:50 7,1 C 8,9 C 6,7 C 72 % 0 lf 990,1 hPa 0,0 l/m 0 min 0 min 176 W/m 37,7 km/h (5 Bft) 93,62 %
28.02.2017 10:52 7,2 C 9,4 C 7,2 C 72 % 0 lf 990,1 hPa 0,0 l/m 0 min 0 min 213 W/m 43,9 km/h (6 Bft) 89,36 %
28.02.2017 10:54 7,3 C 10,6 C 7,8 C 71 % 0 lf 990,3 hPa 0,0 l/m 2 min 0 min 360 W/m 46,0 km/h (6 Bft) 93,62 %
28.02.2017 10:56 7,3 C 11,1 C 7,8 C 71 % 0 lf 990,1 hPa 0,0 l/m 2 min 0 min 468 W/m 35,6 km/h (5 Bft) 95,74 %
28.02.2017 10:58 7,5 C 12,8 C 8,9 C 71 % 0 lf 990,2 hPa 0,0 l/m 2 min 0 min 457 W/m 33,5 km/h (5 Bft) 97,83 %
28.02.2017 11:00 7,7 C 12,2 C 8,9 C 70 % 0 lf 990,1 hPa 0,0 l/m 2 min 0 min 586 W/m 56,5 km/h (7 Bft) 95,74 %
28.02.2017 11:02 7,8 C 12,8 C 8,9 C 70 % 0 lf 990,2 hPa 0,0 l/m 2 min 0 min 593 W/m 39,7 km/h (6 Bft) 95,74 %
28.02.2017 11:04 7,8 C 11,7 C 8,3 C 69 % 0 lf 990,2 hPa 0,0 l/m 2 min 0 min 260 W/m 43,9 km/h (6 Bft) 95,74 %
28.02.2017 11:06 7,8 C 12,2 C 8,9 C 69 % 0 lf 990,1 hPa 0,0 l/m 2 min 0 min 504 W/m 41,8 km/h (6 Bft) 95,74 %
28.02.2017 11:08 7,8 C 12,2 C 8,9 C 69 % 0 lf 990,1 hPa 0,0 l/m 0 min 0 min 237 W/m 41,8 km/h (6 Bft) 95,74 %
28.02.2017 11:10 7,8 C 12,8 C 8,9 C 69 % 0 lf 990,2 hPa 0,0 l/m 0 min 0 min 251 W/m 31,4 km/h (5 Bft) 95,65 %
28.02.2017 11:12 7,9 C 13,3 C 8,9 C 69 % 0 lf 990,1 hPa 0,0 l/m 2 min 0 min 519 W/m 31,4 km/h (5 Bft) 89,36 %
28.02.2017 11:14 7,9 C 11,7 C 8,9 C 69 % 0 lf 990,1 hPa 0,0 l/m 2 min 0 min 542 W/m 50,2 km/h (7 Bft) 93,62 %
28.02.2017 11:16 7,9 C 11,1 C 8,3 C 69 % 0 lf 990,1 hPa 0,0 l/m 2 min 0 min 533 W/m 52,3 km/h (7 Bft) 93,62 %
28.02.2017 11:18 7,9 C 12,2 C 8,3 C 68 % 0 lf 990,0 hPa 0,0 l/m 2 min 0 min 340 W/m 50,2 km/h (7 Bft) 95,74 %
28.02.2017 11:20 8,0 C 12,8 C 8,9 C 69 % 0 lf 990,0 hPa 0,0 l/m 2 min 0 min 620 W/m 33,5 km/h (5 Bft) 93,62 %
28.02.2017 11:22 8,1 C 13,9 C 8,9 C 69 % 0 lf 990,0 hPa 0,0 l/m 2 min 0 min 617 W/m 48,1 km/h (6 Bft) 93,48 %
28.02.2017 11:24 8,2 C 13,3 C 8,9 C 68 % 0 lf 990,0 hPa 0,0 l/m 2 min 0 min 510 W/m 54,4 km/h (7 Bft) 97,87 %
28.02.2017 11:26 8,2 C 13,3 C 8,3 C 67 % 0 lf 990,1 hPa 0,0 l/m 2 min 0 min 529 W/m 54,4 km/h (7 Bft) 97,87 %
28.02.2017 11:28 8,2 C 14,4 C 8,9 C 68 % 0 lf 989,9 hPa 0,0 l/m 2 min 0 min 547 W/m 31,4 km/h (5 Bft) 91,49 %
28.02.2017 11:30 8,3 C 14,4 C 8,9 C 68 % 0 lf 990,0 hPa 0,0 l/m 2 min 0 min 578 W/m 48,1 km/h (6 Bft) 93,62 %
28.02.2017 11:32 8,4 C 15,6 C 8,9 C 68 % 0 lf 989,9 hPa 0,0 l/m 2 min 0 min 557 W/m 39,7 km/h (6 Bft) 91,49 %
28.02.2017 11:34 8,4 C 15,6 C 8,9 C 67 % 0 lf 989,9 hPa 0,0 l/m 2 min 0 min 559 W/m 50,2 km/h (7 Bft) 95,65 %
28.02.2017 11:36 8,4 C 15,6 C 8,9 C 67 % 0 lf 989,8 hPa 0,0 l/m 2 min 0 min 580 W/m 31,4 km/h (5 Bft) 93,62 %
28.02.2017 11:38 8,4 C 15,0 C 8,9 C 68 % 0 lf 989,8 hPa 0,0 l/m 2 min 0 min 524 W/m 43,9 km/h (6 Bft) 95,74 %
28.02.2017 11:40 8,5 C 13,9 C 8,9 C 69 % 0 lf 989,8 hPa 0,0 l/m 2 min 0 min 550 W/m 37,7 km/h (5 Bft) 85,11 %
28.02.2017 11:42 8,4 C 13,9 C 8,3 C 68 % 0 lf 989,7 hPa 0,0 l/m 2 min 0 min 299 W/m 46,0 km/h (6 Bft) 93,62 %
28.02.2017 11:44 8,4 C 14,4 C 8,3 C 68 % 0 lf 989,8 hPa 0,0 l/m 2 min 0 min 435 W/m 56,5 km/h (7 Bft) 93,48 %
28.02.2017 11:46 8,4 C 15,0 C 8,9 C 66 % 0 lf 989,8 hPa 0,0 l/m 2 min 0 min 558 W/m 41,8 km/h (6 Bft) 91,49 %
28.02.2017 11:48 8,5 C 14,4 C 8,9 C 67 % 0 lf 989,7 hPa 0,0 l/m 2 min 0 min 483 W/m 43,9 km/h (6 Bft) 93,62 %
28.02.2017 11:50 8,4 C 14,4 C 8,9 C 67 % 0 lf 989,6 hPa 0,0 l/m 2 min 0 min 523 W/m 46,0 km/h (6 Bft) 93,62 %
28.02.2017 11:52 8,4 C 15,6 C 9,4 C 67 % 0 lf 989,7 hPa 0,0 l/m 2 min 0 min 527 W/m 37,7 km/h (5 Bft) 93,62 %
28.02.2017 11:54 8,5 C 15,0 C 9,4 C 67 % 0 lf 989,6 hPa 0,0 l/m 2 min 0 min 529 W/m 41,8 km/h (6 Bft) 89,36 %
28.02.2017 11:56 8,6 C 15,0 C 10,0 C 68 % 0 lf 989,6 hPa 0,0 l/m 2 min 0 min 518 W/m 39,7 km/h (6 Bft) 93,62 %
28.02.2017 11:58 8,7 C 15,6 C 9,4 C 67 % 0 lf 989,5 hPa 0,0 l/m 2 min 0 min 515 W/m 33,5 km/h (5 Bft) 91,30 %
28.02.2017 12:00 8,7 C 14,4 C 9,4 C 67 % 0 lf 989,6 hPa 0,0 l/m 2 min 0 min 513 W/m 52,3 km/h (7 Bft) 93,62 %
28.02.2017 12:02 8,7 C 16,1 C 9,4 C 67 % 0 lf 989,6 hPa 0,0 l/m 2 min 0 min 562 W/m 35,6 km/h (5 Bft) 95,74 %
28.02.2017 12:06 8,9 C 16,7 C 9,4 C 66 % 0 lf 989,6 hPa 0,0 l/m 2 min 0 min 569 W/m 37,7 km/h (5 Bft) 91,49 %
28.02.2017 12:08 9,0 C 17,2 C 9,4 C 66 % 0 lf 989,6 hPa 0,0 l/m 2 min 0 min 880 W/m 37,7 km/h (5 Bft) 95,65 %
28.02.2017 12:10 9,1 C 15,6 C 9,4 C 66 % 0 lf 989,6 hPa 0,0 l/m 2 min 0 min 886 W/m 33,5 km/h (5 Bft) 95,74 %
28.02.2017 12:12 9,1 C 15,6 C 9,4 C 66 % 0 lf 989,5 hPa 0,0 l/m 2 min 0 min 925 W/m 37,7 km/h (5 Bft) 91,49 %
28.02.2017 12:14 9,2 C 15,6 C 9,4 C 66 % 0 lf 989,6 hPa 0,0 l/m 2 min 0 min 930 W/m 31,4 km/h (5 Bft) 95,74 %
28.02.2017 12:16 9,2 C 15,0 C 9,4 C 65 % 0 lf 989,6 hPa 0,0 l/m 2 min 0 min 682 W/m 37,7 km/h (5 Bft) 97,87 %
28.02.2017 12:18 9,2 C 15,6 C 9,4 C 65 % 0 lf 989,6 hPa 0,0 l/m 2 min 0 min 855 W/m 35,6 km/h (5 Bft) 95,74 %
28.02.2017 12:20 9,2 C 14,4 C 9,4 C 65 % 0 lf 989,6 hPa 0,0 l/m 2 min 0 min 856 W/m 31,4 km/h (5 Bft) 97,83 %
28.02.2017 12:22 9,1 C 13,9 C 8,9 C 64 % 0 lf 989,5 hPa 0,0 l/m 2 min 0 min 897 W/m 37,7 km/h (5 Bft) 91,49 %
28.02.2017 12:24 8,9 C 12,2 C 8,9 C 64 % 0 lf 989,5 hPa 0,0 l/m 2 min 0 min 613 W/m 37,7 km/h (5 Bft) 93,62 %
28.02.2017 12:26 8,8 C 12,8 C 8,3 C 64 % 0 lf 989,7 hPa 0,0 l/m 2 min 0 min 578 W/m 56,5 km/h (7 Bft) 97,87 %
28.02.2017 12:28 8,7 C 12,2 C 8,3 C 64 % 0 lf 989,6 hPa 0,0 l/m 2 min 0 min 785 W/m 48,1 km/h (6 Bft) 100,00 %
28.02.2017 12:30 8,6 C 10,6 C 8,3 C 64 % 0 lf 989,5 hPa 0,0 l/m 2 min 0 min 581 W/m 46,0 km/h (6 Bft) 95,74 %
28.02.2017 12:32 8,6 C 10,6 C 8,3 C 64 % 0 lf 989,6 hPa 0,0 l/m 2 min 0 min 563 W/m 31,4 km/h (5 Bft) 100,00 %
28.02.2017 12:34 8,6 C 10,6 C 8,3 C 65 % 0 lf 989,5 hPa 0,0 l/m 2 min 0 min 591 W/m 31,4 km/h (5 Bft) 100,00 %
28.02.2017 12:36 8,6 C 11,7 C 8,9 C 65 % 0 lf 989,4 hPa 0,0 l/m 2 min 0 min 662 W/m 33,5 km/h (5 Bft) 97,87 %
28.02.2017 12:38 8,6 C 11,1 C 8,9 C 65 % 0 lf 989,5 hPa 0,0 l/m 2 min 0 min 702 W/m 37,7 km/h (5 Bft) 100,00 %
28.02.2017 12:40 8,6 C 10,6 C 8,3 C 64 % 0 lf 989,5 hPa 0,0 l/m 2 min 0 min 624 W/m 43,9 km/h (6 Bft) 97,87 %
28.02.2017 12:42 8,6 C 10,6 C 8,3 C 65 % 0 lf 989,3 hPa 0,0 l/m 2 min 0 min 617 W/m 41,8 km/h (6 Bft) 97,87 %
28.02.2017 12:44 8,5 C 11,1 C 8,3 C 65 % 0 lf 989,4 hPa 0,0 l/m 2 min 0 min 558 W/m 39,7 km/h (6 Bft) 100,00 %
28.02.2017 12:46 8,5 C 11,7 C 8,3 C 65 % 0 lf 989,3 hPa 0,0 l/m 2 min 0 min 563 W/m 35,6 km/h (5 Bft) 100,00 %
28.02.2017 12:48 8,5 C 12,2 C 8,3 C 65 % 0 lf 989,4 hPa 0,0 l/m 2 min 0 min 568 W/m 35,6 km/h (5 Bft) 95,74 %
28.02.2017 12:50 8,6 C 13,3 C 8,3 C 65 % 0 lf 989,3 hPa 0,0 l/m 2 min 0 min 852 W/m 41,8 km/h (6 Bft) 100,00 %
28.02.2017 12:52 8,7 C 12,8 C 8,3 C 65 % 0 lf 989,3 hPa 0,0 l/m 2 min 0 min 837 W/m 43,9 km/h (6 Bft) 100,00 %
28.02.2017 12:54 8,7 C 12,8 C 8,3 C 65 % 0 lf 989,3 hPa 0,0 l/m 2 min 0 min 804 W/m 37,7 km/h (5 Bft) 97,87 %
28.02.2017 12:56 8,7 C 12,8 C 8,3 C 65 % 0 lf 989,3 hPa 0,0 l/m 2 min 0 min 725 W/m 37,7 km/h (5 Bft) 100,00 %
28.02.2017 12:58 8,6 C 11,1 C 7,8 C 64 % 0 lf 989,3 hPa 0,0 l/m 2 min 0 min 717 W/m 43,9 km/h (6 Bft) 100,00 %
28.02.2017 13:00 8,6 C 11,1 C 8,3 C 65 % 0 lf 989,3 hPa 0,0 l/m 2 min 0 min 712 W/m 31,4 km/h (5 Bft) 97,87 %
28.02.2017 13:02 8,6 C 11,7 C 8,3 C 65 % 0 lf 989,3 hPa 0,0 l/m 2 min 0 min 720 W/m 35,6 km/h (5 Bft) 100,00 %
28.02.2017 13:04 8,6 C 11,1 C 8,3 C 66 % 0 lf 989,2 hPa 0,0 l/m 2 min 0 min 622 W/m 43,9 km/h (6 Bft) 100,00 %
28.02.2017 13:06 8,5 C 10,6 C 8,3 C 66 % 0 lf 989,2 hPa 0,0 l/m 2 min 0 min 637 W/m 33,5 km/h (5 Bft) 100,00 %
28.02.2017 13:08 8,4 C 10,0 C 7,8 C 66 % 0 lf 989,2 hPa 0,0 l/m 2 min 0 min 598 W/m 43,9 km/h (6 Bft) 100,00 %
28.02.2017 13:10 8,3 C 10,0 C 7,8 C 67 % 0 lf 989,2 hPa 0,0 l/m 2 min 0 min 580 W/m 31,4 km/h (5 Bft) 97,87 %
28.02.2017 13:12 8,3 C 10,0 C 7,8 C 68 % 0 lf 989,2 hPa 0,0 l/m 2 min 0 min 608 W/m 31,4 km/h (5 Bft) 100,00 %
28.02.2017 13:14 8,2 C 10,0 C 7,8 C 68 % 0 lf 989,2 hPa 0,0 l/m 2 min 0 min 656 W/m 43,9 km/h (6 Bft) 100,00 %
28.02.2017 13:16 8,1 C 10,6 C 7,8 C 69 % 0 lf 989,1 hPa 0,0 l/m 2 min 0 min 652 W/m 31,4 km/h (5 Bft) 100,00 %
28.02.2017 13:18 8,1 C 10,6 C 7,8 C 70 % 0 lf 989,1 hPa 0,0 l/m 2 min 0 min 657 W/m 29,3 km/h (5 Bft) 97,83 %
28.02.2017 13:20 8,0 C 10,6 C 7,8 C 70 % 0 lf 989,0 hPa 0,0 l/m 2 min 0 min 651 W/m 29,3 km/h (5 Bft) 97,87 %
28.02.2017 13:21 8,0 C 10,6 C 8,3 C 70 % 0 lf 989,2 hPa 0,0 l/m 1 min 0 min 656 W/m 18,8 km/h (3 Bft) 100,00 %
28.02.2017 13:22 8,0 C 10,6 C 7,8 C 70 % 0 lf 989,1 hPa 0,0 l/m 1 min 0 min 654 W/m 33,5 km/h (5 Bft) 100,00 %
28.02.2017 13:23 8,0 C 10,6 C 7,8 C 70 % 0 lf 988,9 hPa 0,0 l/m 1 min 0 min 652 W/m 29,3 km/h (5 Bft) 100,00 %
28.02.2017 13:24 8,0 C 10,6 C 7,8 C 71 % 0 lf 989,1 hPa 0,0 l/m 1 min 0 min 645 W/m 23,0 km/h (4 Bft) 100,00 %
28.02.2017 13:25 8,0 C 10,6 C 7,8 C 71 % 0 lf 989,0 hPa 0,0 l/m 1 min 0 min 652 W/m 14,6 km/h (3 Bft) 95,65 %
28.02.2017 13:28 8,0 C 10,0 C 8,3 C 71 % 0 lf 988,9 hPa 0,0 l/m 2 min 0 min 653 W/m 31,4 km/h (5 Bft) 94,29 %
28.02.2017 13:30 7,9 C 10,0 C 8,3 C 71 % 0 lf 988,9 hPa 0,0 l/m 2 min 0 min 641 W/m 25,1 km/h (4 Bft) 98,36 %
28.02.2017 13:32 7,9 C 9,4 C 8,3 C 71 % 0 lf 988,8 hPa 0,0 l/m 2 min 0 min 639 W/m 27,2 km/h (4 Bft) 95,74 %
28.02.2017 13:34 7,9 C 9,4 C 8,3 C 71 % 0 lf 988,8 hPa 0,0 l/m 2 min 0 min 640 W/m 27,2 km/h (4 Bft) 92,31 %
28.02.2017 13:36 7,9 C 10,0 C 8,3 C 71 % 0 lf 988,8 hPa 0,0 l/m 2 min 0 min 642 W/m 25,1 km/h (4 Bft) 95,92 %
28.02.2017 13:38 7,9 C 10,0 C 8,3 C 72 % 0 lf 988,8 hPa 0,0 l/m 2 min 0 min 636 W/m 25,1 km/h (4 Bft) 95,65 %
28.02.2017 13:40 7,9 C 10,0 C 8,3 C 72 % 0 lf 988,8 hPa 0,0 l/m 2 min 0 min 632 W/m 29,3 km/h (5 Bft) 94,44 %
28.02.2017 13:42 7,9 C 10,0 C 8,3 C 72 % 0 lf 988,8 hPa 0,0 l/m 2 min 0 min 627 W/m 20,9 km/h (4 Bft) 94,74 %
28.02.2017 13:44 7,9 C 9,4 C 8,3 C 72 % 0 lf 988,7 hPa 0,0 l/m 2 min 0 min 623 W/m 35,6 km/h (5 Bft) 96,43 %
28.02.2017 13:46 7,8 C 9,4 C 8,3 C 72 % 0 lf 988,7 hPa 0,0 l/m 2 min 0 min 626 W/m 29,3 km/h (5 Bft) 93,48 %
28.02.2017 13:48 7,8 C 9,4 C 8,3 C 72 % 0 lf 988,7 hPa 0,0 l/m 2 min 0 min 628 W/m 29,3 km/h (5 Bft) 95,74 %
28.02.2017 13:50 7,8 C 9,4 C 7,8 C 72 % 0 lf 988,7 hPa 0,0 l/m 2 min 0 min 624 W/m 35,6 km/h (5 Bft) 95,74 %
28.02.2017 13:52 7,8 C 9,4 C 8,3 C 71 % 0 lf 988,6 hPa 0,0 l/m 2 min 0 min 624 W/m 27,2 km/h (4 Bft) 95,74 %
28.02.2017 13:54 7,8 C 9,4 C 8,3 C 71 % 0 lf 988,7 hPa 0,0 l/m 2 min 0 min 624 W/m 25,1 km/h (4 Bft) 92,11 %
28.02.2017 13:56 7,9 C 9,4 C 8,3 C 72 % 0 lf 988,6 hPa 0,0 l/m 2 min 0 min 620 W/m 20,9 km/h (4 Bft) 91,84 %
28.02.2017 13:58 7,9 C 9,4 C 8,3 C 72 % 0 lf 988,5 hPa 0,0 l/m 2 min 0 min 616 W/m 31,4 km/h (5 Bft) 95,74 %
28.02.2017 14:00 7,9 C 9,4 C 8,3 C 71 % 0 lf 988,6 hPa 0,0 l/m 2 min 0 min 619 W/m 25,1 km/h (4 Bft) 96,23 %
28.02.2017 14:02 8,0 C 10,0 C 8,9 C 71 % 0 lf 988,5 hPa 0,0 l/m 2 min 0 min 614 W/m 23,0 km/h (4 Bft) 93,62 %
28.02.2017 14:04 8,0 C 9,4 C 8,3 C 71 % 0 lf 988,4 hPa 0,0 l/m 2 min 0 min 609 W/m 31,4 km/h (5 Bft) 92,11 %
28.02.2017 14:06 8,1 C 9,4 C 8,3 C 71 % 0 lf 988,4 hPa 0,0 l/m 2 min 0 min 609 W/m 27,2 km/h (4 Bft) 93,62 %
28.02.2017 14:08 8,1 C 9,4 C 8,3 C 71 % 0 lf 988,4 hPa 0,0 l/m 2 min 0 min 601 W/m 20,9 km/h (4 Bft) 93,62 %
28.02.2017 14:10 8,1 C 9,4 C 8,3 C 70 % 0 lf 988,3 hPa 0,0 l/m 2 min 0 min 596 W/m 27,2 km/h (4 Bft) 95,92 %
28.02.2017 14:12 8,1 C 10,0 C 8,3 C 71 % 0 lf 988,3 hPa 0,0 l/m 2 min 0 min 593 W/m 31,4 km/h (5 Bft) 93,48 %
28.02.2017 14:14 8,1 C 9,4 C 8,3 C 70 % 0 lf 988,3 hPa 0,0 l/m 2 min 0 min 589 W/m 23,0 km/h (4 Bft) 92,59 %
28.02.2017 14:16 8,0 C 9,4 C 8,3 C 71 % 0 lf 988,3 hPa 0,0 l/m 2 min 0 min 584 W/m 23,0 km/h (4 Bft) 94,74 %
28.02.2017 14:18 8,0 C 9,4 C 8,3 C 70 % 0 lf 988,3 hPa 0,0 l/m 2 min 0 min 590 W/m 25,1 km/h (4 Bft) 93,88 %
28.02.2017 14:20 8,0 C 9,4 C 8,3 C 71 % 0 lf 988,2 hPa 0,0 l/m 2 min 0 min 587 W/m 23,0 km/h (4 Bft) 93,62 %
28.02.2017 14:22 8,0 C 9,4 C 8,3 C 71 % 0 lf 988,2 hPa 0,0 l/m 2 min 0 min 583 W/m 25,1 km/h (4 Bft) 91,49 %
28.02.2017 14:24 8,0 C 9,4 C 8,3 C 71 % 0 lf 988,3 hPa 0,0 l/m 2 min 0 min 590 W/m 25,1 km/h (4 Bft) 98,11 %
28.02.2017 14:26 8,0 C 9,4 C 8,3 C 71 % 0 lf 988,2 hPa 0,0 l/m 2 min 0 min 587 W/m 23,0 km/h (4 Bft) 95,74 %
28.02.2017 14:28 8,1 C 9,4 C 8,3 C 71 % 0 lf 988,2 hPa 0,0 l/m 2 min 0 min 562 W/m 18,8 km/h (3 Bft) 92,11 %
28.02.2017 14:30 8,1 C 9,4 C 8,3 C 71 % 0 lf 988,2 hPa 0,0 l/m 2 min 0 min 551 W/m 18,8 km/h (3 Bft) 95,92 %
28.02.2017 14:32 8,1 C 9,4 C 8,3 C 72 % 0 lf 988,2 hPa 0,0 l/m 2 min 0 min 551 W/m 12,6 km/h (3 Bft) 97,87 %
28.02.2017 14:34 8,1 C 9,4 C 8,3 C 72 % 0 lf 988,2 hPa 0,0 l/m 2 min 0 min 548 W/m 10,5 km/h (2 Bft) 96,00 %
28.02.2017 14:35 8,1 C 9,4 C 8,9 C 72 % 0 lf 988,2 hPa 0,0 l/m 1 min 0 min 550 W/m 10,5 km/h (2 Bft) 95,65 %
28.02.2017 14:36 8,1 C 9,4 C 8,9 C 72 % 0 lf 988,1 hPa 0,0 l/m 1 min 0 min 547 W/m 10,5 km/h (2 Bft) 95,65 %
28.02.2017 14:37 8,1 C 9,4 C 8,9 C 72 % 0 lf 988,2 hPa 0,0 l/m 1 min 0 min 550 W/m 10,5 km/h (2 Bft) 100,00 %
28.02.2017 14:40 8,2 C 9,4 C 8,9 C 72 % 0 lf 988,1 hPa 0,0 l/m 2 min 0 min 534 W/m 14,6 km/h (3 Bft) 95,74 %
28.02.2017 14:42 8,2 C 9,4 C 8,3 C 72 % 0 lf 988,1 hPa 0,0 l/m 2 min 0 min 530 W/m 16,7 km/h (3 Bft) 93,75 %
28.02.2017 14:44 8,2 C 9,4 C 8,3 C 71 % 0 lf 988,1 hPa 0,0 l/m 2 min 0 min 518 W/m 16,7 km/h (3 Bft) 93,62 %
28.02.2017 14:46 8,2 C 8,9 C 7,8 C 71 % 0 lf 988,1 hPa 0,0 l/m 2 min 0 min 508 W/m 20,9 km/h (4 Bft) 93,62 %
28.02.2017 14:48 8,2 C 8,9 C 7,8 C 71 % 0 lf 988,1 hPa 0,0 l/m 2 min 0 min 505 W/m 18,8 km/h (3 Bft) 93,62 %
28.02.2017 14:50 8,2 C 8,9 C 7,8 C 70 % 0 lf 988,1 hPa 0,0 l/m 2 min 0 min 508 W/m 20,9 km/h (4 Bft) 93,62 %
28.02.2017 14:52 8,2 C 8,9 C 7,8 C 71 % 0 lf 988,1 hPa 0,0 l/m 2 min 0 min 519 W/m 20,9 km/h (4 Bft) 95,74 %
28.02.2017 14:54 8,2 C 8,9 C 7,8 C 70 % 0 lf 988,1 hPa 0,0 l/m 2 min 0 min 530 W/m 25,1 km/h (4 Bft) 95,65 %
28.02.2017 14:56 8,2 C 8,9 C 7,8 C 70 % 0 lf 988,1 hPa 0,0 l/m 2 min 0 min 534 W/m 25,1 km/h (4 Bft) 93,62 %
28.02.2017 14:58 8,2 C 8,9 C 7,8 C 69 % 0 lf 988,1 hPa 0,0 l/m 2 min 0 min 540 W/m 27,2 km/h (4 Bft) 95,74 %
28.02.2017 15:00 8,2 C 8,9 C 7,8 C 69 % 0 lf 988,1 hPa 0,0 l/m 2 min 0 min 541 W/m 20,9 km/h (4 Bft) 95,74 %
28.02.2017 15:02 8,1 C 8,9 C 7,8 C 69 % 0 lf 988,1 hPa 0,0 l/m 2 min 0 min 534 W/m 18,8 km/h (3 Bft) 95,74 %
28.02.2017 15:04 8,1 C 8,9 C 7,8 C 69 % 0 lf 988,1 hPa 0,0 l/m 2 min 0 min 540 W/m 31,4 km/h (5 Bft) 93,62 %
28.02.2017 15:06 8,1 C 8,9 C 7,8 C 69 % 0 lf 988,1 hPa 0,0 l/m 2 min 0 min 547 W/m 25,1 km/h (4 Bft) 95,65 %
28.02.2017 15:08 8,1 C 8,9 C 7,8 C 69 % 0 lf 988,1 hPa 0,0 l/m 2 min 0 min 562 W/m 27,2 km/h (4 Bft) 95,74 %
28.02.2017 15:10 8,1 C 9,4 C 7,8 C 69 % 0 lf 988,2 hPa 0,0 l/m 2 min 0 min 426 W/m 25,1 km/h (4 Bft) 97,87 %
28.02.2017 15:12 8,1 C 9,4 C 7,8 C 69 % 0 lf 988,1 hPa 0,0 l/m 2 min 0 min 423 W/m 29,3 km/h (5 Bft) 95,74 %
28.02.2017 15:14 8,1 C 9,4 C 8,3 C 69 % 0 lf 988,1 hPa 0,0 l/m 2 min 0 min 419 W/m 23,0 km/h (4 Bft) 93,62 %
28.02.2017 15:16 8,1 C 9,4 C 8,3 C 70 % 0 lf 988,1 hPa 0,0 l/m 2 min 0 min 416 W/m 27,2 km/h (4 Bft) 93,48 %
28.02.2017 15:18 8,1 C 9,4 C 8,3 C 69 % 0 lf 988,1 hPa 0,0 l/m 2 min 0 min 412 W/m 20,9 km/h (4 Bft) 97,87 %
28.02.2017 15:20 8,2 C 9,4 C 8,3 C 69 % 0 lf 988,2 hPa 0,0 l/m 2 min 0 min 409 W/m 23,0 km/h (4 Bft) 97,87 %
28.02.2017 15:22 8,2 C 9,4 C 8,3 C 69 % 0 lf 988,2 hPa 0,0 l/m 2 min 0 min 405 W/m 27,2 km/h (4 Bft) 97,87 %
28.02.2017 15:24 8,2 C 9,4 C 8,3 C 69 % 0 lf 988,2 hPa 0,0 l/m 2 min 0 min 401 W/m 23,0 km/h (4 Bft) 97,87 %
28.02.2017 15:26 8,2 C 9,4 C 8,3 C 69 % 0 lf 988,2 hPa 0,0 l/m 2 min 0 min 398 W/m 23,0 km/h (4 Bft) 95,74 %
28.02.2017 15:28 8,2 C 9,4 C 8,3 C 69 % 0 lf 988,2 hPa 0,0 l/m 2 min 0 min 394 W/m 18,8 km/h (3 Bft) 95,65 %
28.02.2017 15:30 8,2 C 9,4 C 8,3 C 70 % 0 lf 988,2 hPa 0,0 l/m 2 min 0 min 390 W/m 29,3 km/h (5 Bft) 95,74 %
28.02.2017 15:32 8,2 C 9,4 C 8,3 C 70 % 0 lf 988,2 hPa 0,0 l/m 2 min 0 min 386 W/m 20,9 km/h (4 Bft) 97,87 %
28.02.2017 15:34 8,2 C 9,4 C 7,8 C 69 % 0 lf 988,2 hPa 0,0 l/m 2 min 0 min 382 W/m 20,9 km/h (4 Bft) 100,00 %
28.02.2017 15:36 8,2 C 8,9 C 7,8 C 69 % 0 lf 988,2 hPa 0,0 l/m 2 min 0 min 379 W/m 23,0 km/h (4 Bft) 97,87 %
28.02.2017 15:38 8,2 C 8,9 C 7,8 C 69 % 0 lf 988,2 hPa 0,0 l/m 2 min 0 min 375 W/m 14,6 km/h (3 Bft) 100,00 %
28.02.2017 15:40 8,2 C 8,9 C 7,8 C 69 % 0 lf 988,2 hPa 0,0 l/m 2 min 0 min 371 W/m 20,9 km/h (4 Bft) 95,65 %
28.02.2017 15:42 8,2 C 8,9 C 7,8 C 70 % 0 lf 988,3 hPa 0,0 l/m 2 min 0 min 367 W/m 16,7 km/h (3 Bft) 100,00 %
28.02.2017 15:44 8,2 C 8,3 C 7,8 C 69 % 0 lf 988,3 hPa 0,0 l/m 2 min 0 min 363 W/m 37,7 km/h (5 Bft) 97,87 %
28.02.2017 15:46 8,1 C 8,3 C 7,2 C 69 % 0 lf 988,3 hPa 0,0 l/m 2 min 0 min 359 W/m 23,0 km/h (4 Bft) 95,74 %
28.02.2017 15:48 8,1 C 8,3 C 7,2 C 69 % 0 lf 988,3 hPa 0,0 l/m 2 min 0 min 354 W/m 20,9 km/h (4 Bft) 97,87 %
28.02.2017 15:50 8,0 C 8,3 C 7,2 C 69 % 0 lf 988,4 hPa 0,0 l/m 2 min 0 min 350 W/m 23,0 km/h (4 Bft) 97,87 %
28.02.2017 15:52 8,0 C 8,3 C 7,2 C 69 % 0 lf 988,3 hPa 0,0 l/m 2 min 0 min 346 W/m 25,1 km/h (4 Bft) 97,83 %
28.02.2017 15:54 8,0 C 8,3 C 7,2 C 70 % 0 lf 988,3 hPa 0,0 l/m 2 min 0 min 342 W/m 23,0 km/h (4 Bft) 95,74 %
28.02.2017 15:56 7,9 C 8,3 C 7,2 C 70 % 0 lf 988,3 hPa 0,0 l/m 2 min 0 min 338 W/m 29,3 km/h (5 Bft) 93,62 %
28.02.2017 15:58 7,9 C 8,3 C 7,2 C 70 % 0 lf 988,4 hPa 0,0 l/m 2 min 0 min 333 W/m 23,0 km/h (4 Bft) 97,87 %
28.02.2017 16:00 7,9 C 8,3 C 7,2 C 70 % 0 lf 988,4 hPa 0,0 l/m 2 min 0 min 329 W/m 16,7 km/h (3 Bft) 95,74 %
28.02.2017 16:02 7,9 C 8,3 C 7,2 C 70 % 0 lf 988,5 hPa 0,0 l/m 2 min 0 min 325 W/m 25,1 km/h (4 Bft) 97,87 %
28.02.2017 16:04 7,9 C 8,3 C 7,2 C 71 % 0 lf 988,5 hPa 0,0 l/m 2 min 0 min 320 W/m 23,0 km/h (4 Bft) 86,96 %
28.02.2017 16:06 7,8 C 8,3 C 7,2 C 71 % 0 lf 988,5 hPa 0,0 l/m 2 min 0 min 316 W/m 25,1 km/h (4 Bft) 95,74 %
28.02.2017 16:08 7,8 C 8,3 C 7,2 C 71 % 0 lf 988,6 hPa 0,0 l/m 2 min 0 min 312 W/m 27,2 km/h (4 Bft) 97,87 %
28.02.2017 16:10 7,8 C 8,3 C 6,7 C 71 % 0 lf 988,5 hPa 0,0 l/m 2 min 0 min 307 W/m 18,8 km/h (3 Bft) 95,74 %
28.02.2017 16:12 7,8 C 8,3 C 7,2 C 71 % 0 lf 988,7 hPa 0,0 l/m 2 min 0 min 303 W/m 18,8 km/h (3 Bft) 95,74 %
28.02.2017 16:14 7,8 C 8,3 C 7,2 C 71 % 0 lf 988,6 hPa 0,0 l/m 2 min 0 min 298 W/m 23,0 km/h (4 Bft) 95,74 %
28.02.2017 16:16 7,8 C 8,3 C 7,2 C 72 % 0 lf 988,6 hPa 0,0 l/m 2 min 0 min 293 W/m 16,7 km/h (3 Bft) 93,48 %
28.02.2017 16:18 7,8 C 8,3 C 7,2 C 72 % 0 lf 988,6 hPa 0,0 l/m 2 min 0 min 289 W/m 16,7 km/h (3 Bft) 95,74 %
28.02.2017 16:19 7,8 C 8,3 C 7,2 C 72 % 0 lf 988,6 hPa 0,0 l/m 1 min 0 min 287 W/m 18,8 km/h (3 Bft) 95,65 %
28.02.2017 16:20 7,8 C 8,3 C 7,2 C 72 % 0 lf 988,6 hPa 0,0 l/m 1 min 0 min 284 W/m 12,6 km/h (3 Bft) 95,65 %
28.02.2017 16:22 7,8 C 8,3 C 7,2 C 72 % 0 lf 988,7 hPa 0,0 l/m 2 min 0 min 280 W/m 16,7 km/h (3 Bft) 97,44 %
28.02.2017 16:24 7,8 C 8,3 C 7,2 C 72 % 0 lf 988,6 hPa 0,0 l/m 2 min 0 min 275 W/m 20,9 km/h (4 Bft) 95,65 %
28.02.2017 16:26 7,8 C 8,3 C 7,2 C 72 % 0 lf 988,6 hPa 0,0 l/m 2 min 0 min 270 W/m 20,9 km/h (4 Bft) 93,62 %
28.02.2017 16:28 7,8 C 8,3 C 7,2 C 72 % 0 lf 988,7 hPa 0,0 l/m 2 min 0 min 265 W/m 27,2 km/h (4 Bft) 97,87 %
28.02.2017 16:30 7,8 C 8,3 C 7,2 C 72 % 0 lf 988,6 hPa 0,0 l/m 2 min 0 min 261 W/m 27,2 km/h (4 Bft) 95,74 %
28.02.2017 16:32 7,7 C 8,3 C 7,2 C 72 % 0 lf 988,6 hPa 0,0 l/m 2 min 0 min 256 W/m 33,5 km/h (5 Bft) 97,92 %
28.02.2017 16:34 7,7 C 8,3 C 6,7 C 72 % 0 lf 988,6 hPa 0,0 l/m 2 min 0 min 251 W/m 23,0 km/h (4 Bft) 97,83 %
28.02.2017 16:36 7,7 C 7,8 C 6,7 C 72 % 0 lf 988,6 hPa 0,0 l/m 2 min 0 min 246 W/m 23,0 km/h (4 Bft) 94,59 %
28.02.2017 16:38 7,7 C 7,8 C 6,7 C 72 % 0 lf 988,7 hPa 0,0 l/m 2 min 0 min 241 W/m 20,9 km/h (4 Bft) 95,74 %
28.02.2017 16:40 7,7 C 7,8 C 6,7 C 72 % 0 lf 988,7 hPa 0,0 l/m 2 min 0 min 236 W/m 14,6 km/h (3 Bft) 97,87 %
28.02.2017 16:42 7,7 C 7,8 C 6,7 C 72 % 0 lf 988,7 hPa 0,0 l/m 2 min 0 min 231 W/m 16,7 km/h (3 Bft) 95,74 %
28.02.2017 16:44 7,7 C 7,8 C 6,1 C 72 % 0 lf 988,8 hPa 0,0 l/m 2 min 0 min 226 W/m 27,2 km/h (4 Bft) 97,87 %
28.02.2017 16:46 7,6 C 7,2 C 6,1 C 72 % 0 lf 989,3 hPa 0,0 l/m 2 min 0 min 221 W/m 58,6 km/h (7 Bft) 97,87 %
28.02.2017 16:48 7,3 C 6,1 C 4,4 C 73 % 15 lf 989,5 hPa 0,0 l/m 2 min 2 min 216 W/m 46,0 km/h (6 Bft) 97,83 %
28.02.2017 16:50 6,9 C 4,4 C 2,2 C 74 % 15 lf 989,5 hPa 0,2 l/m 2 min 2 min 211 W/m 31,4 km/h (5 Bft) 95,74 %
28.02.2017 16:52 6,4 C 3,9 C 1,7 C 76 % 15 lf 989,7 hPa 0,2 l/m 2 min 2 min 206 W/m 29,3 km/h (5 Bft) 95,74 %
28.02.2017 16:54 6,1 C 3,3 C 1,7 C 77 % 15 lf 989,7 hPa 0,2 l/m 2 min 2 min 201 W/m 16,7 km/h (3 Bft) 93,62 %
28.02.2017 16:56 5,7 C 3,3 C 2,2 C 78 % 15 lf 989,8 hPa 0,0 l/m 2 min 2 min 196 W/m 29,3 km/h (5 Bft) 93,62 %
28.02.2017 16:58 5,4 C 3,3 C 2,2 C 80 % 15 lf 989,8 hPa 0,2 l/m 2 min 2 min 191 W/m 37,7 km/h (5 Bft) 97,87 %
28.02.2017 17:00 5,2 C 3,3 C 2,2 C 82 % 15 lf 989,8 hPa 0,2 l/m 2 min 2 min 186 W/m 25,1 km/h (4 Bft) 97,83 %
28.02.2017 17:02 4,9 C 3,3 C 2,2 C 83 % 15 lf 989,7 hPa 0,2 l/m 0 min 2 min 5 W/m 27,2 km/h (4 Bft) 97,87 %
28.02.2017 17:04 4,8 C 3,3 C 2,2 C 84 % 15 lf 989,8 hPa 0,0 l/m 0 min 2 min 8 W/m 25,1 km/h (4 Bft) 95,74 %
28.02.2017 17:06 4,7 C 3,3 C 2,2 C 85 % 15 lf 989,9 hPa 0,2 l/m 0 min 2 min 40 W/m 27,2 km/h (4 Bft) 95,74 %
28.02.2017 17:08 4,5 C 3,3 C 2,2 C 86 % 15 lf 990,0 hPa 0,0 l/m 2 min 2 min 165 W/m 27,2 km/h (4 Bft) 95,74 %
28.02.2017 17:10 4,4 C 3,3 C 2,2 C 87 % 15 lf 990,0 hPa 0,2 l/m 0 min 2 min 72 W/m 27,2 km/h (4 Bft) 100,00 %
28.02.2017 17:12 4,3 C 3,3 C 2,2 C 87 % 15 lf 990,0 hPa 0,2 l/m 0 min 2 min 19 W/m 27,2 km/h (4 Bft) 95,65 %
28.02.2017 17:14 4,3 C 3,3 C 2,2 C 88 % 15 lf 989,9 hPa 0,2 l/m 2 min 2 min 126 W/m 23,0 km/h (4 Bft) 100,00 %
28.02.2017 17:16 4,2 C 3,3 C 2,2 C 88 % 15 lf 989,9 hPa 0,0 l/m 0 min 2 min 12 W/m 23,0 km/h (4 Bft) 100,00 %
28.02.2017 17:18 4,2 C 3,3 C 2,2 C 89 % 15 lf 990,0 hPa 0,0 l/m 0 min 2 min 12 W/m 25,1 km/h (4 Bft) 95,74 %
28.02.2017 17:20 4,1 C 3,3 C 2,2 C 89 % 15 lf 990,1 hPa 0,0 l/m 0 min 2 min 8 W/m 18,8 km/h (3 Bft) 97,87 %
28.02.2017 17:22 4,1 C 3,3 C 2,2 C 89 % 15 lf 990,1 hPa 0,0 l/m 0 min 2 min 7 W/m 27,2 km/h (4 Bft) 95,65 %
28.02.2017 17:24 4,1 C 3,3 C 2,8 C 90 % 15 lf 990,2 hPa 0,0 l/m 0 min 2 min 7 W/m 14,6 km/h (3 Bft) 100,00 %
28.02.2017 17:26 4,1 C 3,3 C 2,8 C 90 % 15 lf 990,2 hPa 0,0 l/m 0 min 2 min 7 W/m 16,7 km/h (3 Bft) 95,74 %
28.02.2017 17:28 4,1 C 3,3 C 2,8 C 90 % 15 lf 990,3 hPa 0,0 l/m 0 min 2 min 9 W/m 10,5 km/h (2 Bft) 100,00 %
28.02.2017 17:30 4,1 C 3,3 C 2,8 C 90 % 15 lf 990,3 hPa 0,0 l/m 0 min 2 min 9 W/m 14,6 km/h (3 Bft) 95,74 %
28.02.2017 17:32 4,0 C 3,9 C 2,8 C 91 % 15 lf 990,4 hPa 0,2 l/m 0 min 2 min 11 W/m 8,4 km/h (2 Bft) 96,23 %
28.02.2017 17:34 4,0 C 3,9 C 2,8 C 91 % 15 lf 990,5 hPa 0,0 l/m 0 min 2 min 11 W/m 8,4 km/h (2 Bft) 97,83 %
28.02.2017 17:36 4,1 C 3,9 C 2,8 C 91 % 15 lf 990,5 hPa 0,0 l/m 0 min 2 min 11 W/m 8,4 km/h (2 Bft) 94,00 %
28.02.2017 17:38 4,1 C 3,9 C 2,8 C 91 % 15 lf 990,6 hPa 0,0 l/m 0 min 2 min 10 W/m 8,4 km/h (2 Bft) 97,87 %
28.02.2017 17:40 4,1 C 3,9 C 2,8 C 91 % 15 lf 990,5 hPa 0,0 l/m 0 min 2 min 8 W/m 8,4 km/h (2 Bft) 97,87 %
28.02.2017 17:42 4,1 C 3,9 C 2,8 C 91 % 15 lf 990,5 hPa 0,0 l/m 0 min 2 min 8 W/m 6,3 km/h (2 Bft) 95,74 %
28.02.2017 17:44 4,1 C 3,9 C 2,8 C 91 % 15 lf 990,6 hPa 0,2 l/m 0 min 2 min 8 W/m 14,6 km/h (3 Bft) 95,74 %
28.02.2017 17:46 4,1 C 3,9 C 2,8 C 91 % 15 lf 990,6 hPa 0,0 l/m 0 min 2 min 8 W/m 16,7 km/h (3 Bft) 89,13 %
28.02.2017 17:48 4,1 C 3,9 C 2,8 C 92 % 15 lf 990,6 hPa 0,0 l/m 0 min 2 min 10 W/m 10,5 km/h (2 Bft) 93,62 %
28.02.2017 17:50 4,1 C 3,9 C 2,8 C 92 % 15 lf 990,6 hPa 0,0 l/m 0 min 2 min 11 W/m 16,7 km/h (3 Bft) 93,62 %
28.02.2017 17:52 4,1 C 3,9 C 2,8 C 92 % 15 lf 990,7 hPa 0,0 l/m 0 min 2 min 10 W/m 20,9 km/h (4 Bft) 93,62 %
28.02.2017 17:54 4,1 C 3,9 C 2,8 C 92 % 15 lf 990,7 hPa 0,0 l/m 0 min 0 min 9 W/m 20,9 km/h (4 Bft) 93,62 %
28.02.2017 17:56 4,1 C 3,9 C 2,8 C 92 % 15 lf 990,7 hPa 0,0 l/m 0 min 0 min 9 W/m 18,8 km/h (3 Bft) 91,49 %
28.02.2017 17:58 4,1 C 3,9 C 2,8 C 92 % 15 lf 990,7 hPa 0,0 l/m 0 min 2 min 11 W/m 10,5 km/h (2 Bft) 93,48 %
28.02.2017 18:00 4,1 C 3,9 C 2,8 C 92 % 15 lf 990,8 hPa 0,0 l/m 0 min 2 min 14 W/m 16,7 km/h (3 Bft) 93,62 %
28.02.2017 18:02 4,1 C 3,9 C 2,8 C 92 % 15 lf 990,8 hPa 0,0 l/m 0 min 2 min 17 W/m 18,8 km/h (3 Bft) 95,74 %
28.02.2017 18:06 4,0 C 3,3 C 2,8 C 93 % 15 lf 990,8 hPa 0,0 l/m 0 min 2 min 5 W/m 18,8 km/h (3 Bft) 90,59 %
28.02.2017 18:08 4,0 C 3,3 C 2,2 C 93 % 15 lf 990,8 hPa 0,0 l/m 0 min 2 min 18 W/m 14,6 km/h (3 Bft) 97,83 %
28.02.2017 18:10 3,9 C 3,3 C 2,2 C 92 % 15 lf 990,9 hPa 0,0 l/m 0 min 2 min 13 W/m 16,7 km/h (3 Bft) 95,74 %
28.02.2017 18:12 3,9 C 3,3 C 2,2 C 92 % 15 lf 990,8 hPa 0,0 l/m 0 min 0 min 11 W/m 14,6 km/h (3 Bft) 97,87 %
28.02.2017 18:14 3,9 C 3,3 C 2,2 C 93 % 15 lf 991,0 hPa 0,0 l/m 0 min 0 min 7 W/m 12,6 km/h (3 Bft) 97,87 %
28.02.2017 18:16 3,8 C 3,3 C 1,7 C 93 % 15 lf 991,0 hPa 0,0 l/m 0 min 0 min 4 W/m 18,8 km/h (3 Bft) 93,62 %
28.02.2017 18:18 3,8 C 3,3 C 1,7 C 93 % 15 lf 991,0 hPa 0,0 l/m 0 min 0 min 4 W/m 18,8 km/h (3 Bft) 95,74 %
28.02.2017 18:20 3,8 C 3,3 C 1,7 C 93 % 15 lf 991,1 hPa 0,0 l/m 0 min 0 min 4 W/m 20,9 km/h (4 Bft) 97,83 %
28.02.2017 18:22 3,7 C 2,8 C 1,7 C 93 % 15 lf 991,2 hPa 0,0 l/m 0 min 0 min 5 W/m 16,7 km/h (3 Bft) 97,87 %
28.02.2017 18:24 3,7 C 2,8 C 1,7 C 93 % 15 lf 991,3 hPa 0,0 l/m 0 min 0 min 4 W/m 14,6 km/h (3 Bft) 97,87 %
28.02.2017 18:26 3,7 C 2,8 C 1,7 C 93 % 15 lf 991,3 hPa 0,2 l/m 0 min 0 min 4 W/m 14,6 km/h (3 Bft) 97,87 %
28.02.2017 18:28 3,6 C 2,8 C 1,7 C 93 % 15 lf 991,3 hPa 0,0 l/m 0 min 0 min 4 W/m 8,4 km/h (2 Bft) 97,87 %
28.02.2017 18:30 3,6 C 2,8 C 1,1 C 93 % 15 lf 991,3 hPa 0,0 l/m 0 min 0 min 3 W/m 8,4 km/h (2 Bft) 97,87 %
28.02.2017 18:32 3,6 C 2,8 C 1,7 C 93 % 15 lf 991,4 hPa 0,0 l/m 0 min 0 min 2 W/m 10,5 km/h (2 Bft) 95,65 %
28.02.2017 18:34 3,5 C 2,8 C 1,7 C 93 % 15 lf 991,4 hPa 0,0 l/m 0 min 0 min 2 W/m 12,6 km/h (3 Bft) 97,87 %
28.02.2017 18:36 3,5 C 2,8 C 1,7 C 93 % 15 lf 991,6 hPa 0,0 l/m 0 min 0 min 2 W/m 12,6 km/h (3 Bft) 95,74 %
28.02.2017 18:38 3,5 C 3,3 C 2,2 C 93 % 15 lf 991,7 hPa 0,0 l/m 0 min 0 min 0 W/m 16,7 km/h (3 Bft) 97,87 %
28.02.2017 18:40 3,5 C 3,3 C 2,2 C 93 % 15 lf 991,7 hPa 0,0 l/m 0 min 0 min 0 W/m 18,8 km/h (3 Bft) 97,87 %
28.02.2017 18:42 3,5 C 3,3 C 2,2 C 93 % 15 lf 991,8 hPa 0,0 l/m 0 min 0 min 0 W/m 14,6 km/h (3 Bft) 97,87 %
28.02.2017 18:44 3,5 C 3,3 C 2,2 C 93 % 15 lf 991,8 hPa 0,0 l/m 0 min 0 min 0 W/m 18,8 km/h (3 Bft) 93,48 %
28.02.2017 18:46 3,5 C 3,3 C 2,2 C 93 % 15 lf 991,9 hPa 0,0 l/m 0 min 0 min 0 W/m 16,7 km/h (3 Bft) 95,74 %
28.02.2017 18:48 3,5 C 3,3 C 2,2 C 93 % 15 lf 991,9 hPa 0,0 l/m 0 min 0 min 0 W/m 16,7 km/h (3 Bft) 95,74 %
28.02.2017 18:50 3,5 C 3,3 C 2,2 C 93 % 15 lf 991,9 hPa 0,0 l/m 0 min 0 min 0 W/m 23,0 km/h (4 Bft) 97,87 %
28.02.2017 18:52 3,5 C 3,3 C 2,2 C 93 % 15 lf 991,9 hPa 0,0 l/m 0 min 0 min 0 W/m 10,5 km/h (2 Bft) 95,74 %
28.02.2017 18:54 3,6 C 3,3 C 2,2 C 93 % 15 lf 992,0 hPa 0,0 l/m 0 min 0 min 0 W/m 12,6 km/h (3 Bft) 97,87 %
28.02.2017 18:56 3,6 C 3,3 C 2,2 C 93 % 15 lf 992,0 hPa 0,0 l/m 0 min 0 min 0 W/m 23,0 km/h (4 Bft) 97,83 %
28.02.2017 18:58 3,6 C 3,3 C 2,2 C 93 % 15 lf 992,1 hPa 0,0 l/m 0 min 0 min 0 W/m 16,7 km/h (3 Bft) 95,74 %
28.02.2017 19:01 3,6 C 3,3 C 2,2 C 93 % 15 lf 992,1 hPa 0,0 l/m 0 min 0 min 0 W/m 18,8 km/h (3 Bft) 96,34 %
28.02.2017 19:02 3,6 C 3,3 C 2,2 C 93 % 15 lf 992,1 hPa 0,0 l/m 0 min 0 min 0 W/m 18,8 km/h (3 Bft) 100,00 %
28.02.2017 19:04 3,6 C 3,3 C 2,2 C 93 % 15 lf 992,1 hPa 0,0 l/m 0 min 0 min 0 W/m 20,9 km/h (4 Bft) 95,74 %
28.02.2017 19:06 3,6 C 3,3 C 2,2 C 93 % 15 lf 992,1 hPa 0,0 l/m 0 min 0 min 0 W/m 16,7 km/h (3 Bft) 96,43 %
28.02.2017 19:08 3,6 C 3,3 C 1,7 C 93 % 15 lf 992,1 hPa 0,0 l/m 0 min 0 min 0 W/m 18,8 km/h (3 Bft) 97,87 %
28.02.2017 19:10 3,5 C 2,8 C 1,7 C 93 % 15 lf 992,2 hPa 0,0 l/m 0 min 0 min 0 W/m 18,8 km/h (3 Bft) 95,74 %
28.02.2017 19:12 3,5 C 2,8 C 1,7 C 93 % 15 lf 992,3 hPa 0,0 l/m 0 min 0 min 0 W/m 18,8 km/h (3 Bft) 93,62 %
28.02.2017 19:14 3,5 C 2,8 C 1,7 C 93 % 15 lf 992,3 hPa 0,0 l/m 0 min 0 min 0 W/m 20,9 km/h (4 Bft) 93,62 %
28.02.2017 19:16 3,4 C 2,8 C 1,7 C 93 % 15 lf 992,3 hPa 0,0 l/m 0 min 0 min 0 W/m 18,8 km/h (3 Bft) 100,00 %
28.02.2017 19:18 3,4 C 2,8 C 1,7 C 93 % 15 lf 992,5 hPa 0,0 l/m 0 min 0 min 0 W/m 16,7 km/h (3 Bft) 95,65 %
28.02.2017 19:20 3,4 C 2,8 C 1,7 C 94 % 15 lf 992,5 hPa 0,0 l/m 0 min 0 min 0 W/m 18,8 km/h (3 Bft) 95,74 %
28.02.2017 19:22 3,3 C 2,8 C 1,7 C 94 % 15 lf 992,5 hPa 0,0 l/m 0 min 0 min 0 W/m 20,9 km/h (4 Bft) 93,62 %
28.02.2017 19:24 3,3 C 2,8 C 1,7 C 94 % 15 lf 992,7 hPa 0,0 l/m 0 min 0 min 0 W/m 14,6 km/h (3 Bft) 95,74 %
28.02.2017 19:26 3,3 C 2,8 C 1,1 C 94 % 15 lf 992,8 hPa 0,0 l/m 0 min 0 min 0 W/m 12,6 km/h (3 Bft) 97,87 %
28.02.2017 19:28 3,3 C 2,8 C 1,1 C 94 % 15 lf 992,8 hPa 0,0 l/m 0 min 0 min 0 W/m 14,6 km/h (3 Bft) 93,62 %
28.02.2017 19:30 3,2 C 2,8 C 1,1 C 94 % 15 lf 992,9 hPa 0,0 l/m 0 min 0 min 0 W/m 12,6 km/h (3 Bft) 93,48 %
28.02.2017 19:32 3,2 C 2,8 C 1,1 C 94 % 15 lf 992,9 hPa 0,0 l/m 0 min 0 min 0 W/m 14,6 km/h (3 Bft) 95,74 %
28.02.2017 19:34 3,2 C 2,8 C 1,1 C 93 % 15 lf 992,9 hPa 0,0 l/m 0 min 0 min 0 W/m 12,6 km/h (3 Bft) 97,87 %
28.02.2017 19:36 3,2 C 2,8 C 1,1 C 93 % 15 lf 992,9 hPa 0,0 l/m 0 min 0 min 0 W/m 18,8 km/h (3 Bft) 94,59 %
28.02.2017 19:38 3,2 C 2,8 C 1,7 C 93 % 15 lf 992,9 hPa 0,0 l/m 0 min 0 min 0 W/m 12,6 km/h (3 Bft) 93,62 %
28.02.2017 19:40 3,2 C 2,8 C 1,7 C 93 % 15 lf 993,0 hPa 0,0 l/m 0 min 0 min 0 W/m 8,4 km/h (2 Bft) 91,49 %
28.02.2017 19:41 3,1 C 2,8 C 1,7 C 93 % 15 lf 993,0 hPa 0,0 l/m 0 min 0 min 2 W/m 14,6 km/h (3 Bft) 95,65 %
28.02.2017 19:44 3,1 C 2,8 C 1,1 C 93 % 15 lf 993,1 hPa 0,0 l/m 0 min 0 min 4 W/m 16,7 km/h (3 Bft) 94,29 %
28.02.2017 19:46 3,1 C 2,8 C 1,1 C 93 % 15 lf 993,2 hPa 0,0 l/m 0 min 0 min 2 W/m 16,7 km/h (3 Bft) 91,49 %
28.02.2017 19:48 3,1 C 2,8 C 1,1 C 93 % 15 lf 993,2 hPa 0,0 l/m 0 min 0 min 3 W/m 14,6 km/h (3 Bft) 91,49 %
28.02.2017 19:50 3,1 C 2,8 C 1,1 C 93 % 15 lf 993,4 hPa 0,0 l/m 0 min 0 min 0 W/m 14,6 km/h (3 Bft) 95,74 %
28.02.2017 19:52 3,1 C 2,8 C 1,1 C 93 % 15 lf 993,3 hPa 0,0 l/m 0 min 0 min 0 W/m 14,6 km/h (3 Bft) 93,62 %
28.02.2017 19:54 3,1 C 2,8 C 1,1 C 93 % 15 lf 993,4 hPa 0,0 l/m 0 min 0 min 0 W/m 10,5 km/h (2 Bft) 91,30 %
28.02.2017 19:56 3,1 C 2,2 C 1,1 C 93 % 15 lf 993,3 hPa 0,0 l/m 0 min 0 min 0 W/m 16,7 km/h (3 Bft) 91,49 %
28.02.2017 19:58 3,0 C 2,2 C 1,1 C 93 % 15 lf 993,4 hPa 0,0 l/m 0 min 0 min 0 W/m 14,6 km/h (3 Bft) 93,62 %
28.02.2017 20:00 3,0 C 2,2 C 1,1 C 94 % 15 lf 993,3 hPa 0,0 l/m 0 min 0 min 0 W/m 16,7 km/h (3 Bft) 97,87 %
28.02.2017 20:02 3,0 C 2,2 C 1,1 C 94 % 15 lf 993,4 hPa 0,0 l/m 0 min 0 min 0 W/m 10,5 km/h (2 Bft) 93,62 %
28.02.2017 20:04 3,0 C 2,2 C 1,1 C 94 % 15 lf 993,4 hPa 0,0 l/m 0 min 0 min 0 W/m 10,5 km/h (2 Bft) 91,49 %
28.02.2017 20:06 2,9 C 2,2 C 1,1 C 94 % 15 lf 993,5 hPa 0,0 l/m 0 min 0 min 0 W/m 12,6 km/h (3 Bft) 93,48 %
28.02.2017 20:08 2,9 C 2,2 C 1,1 C 94 % 15 lf 993,5 hPa 0,0 l/m 0 min 0 min 0 W/m 12,6 km/h (3 Bft) 95,74 %
28.02.2017 20:10 2,9 C 2,2 C 1,1 C 94 % 15 lf 993,6 hPa 0,0 l/m 0 min 0 min 0 W/m 10,5 km/h (2 Bft) 93,62 %
28.02.2017 20:12 2,9 C 2,8 C 1,1 C 94 % 15 lf 993,6 hPa 0,0 l/m 0 min 0 min 0 W/m 14,6 km/h (3 Bft) 93,62 %
28.02.2017 20:14 2,9 C 2,2 C 1,1 C 94 % 15 lf 993,6 hPa 0,0 l/m 0 min 0 min 0 W/m 14,6 km/h (3 Bft) 97,87 %
28.02.2017 20:16 2,9 C 2,2 C 1,1 C 93 % 15 lf 993,6 hPa 0,0 l/m 0 min 0 min 0 W/m 14,6 km/h (3 Bft) 93,62 %
28.02.2017 20:18 2,9 C 2,2 C 1,1 C 93 % 15 lf 993,7 hPa 0,0 l/m 0 min 0 min 0 W/m 16,7 km/h (3 Bft) 95,65 %
28.02.2017 20:20 2,9 C 2,8 C 1,1 C 94 % 15 lf 993,7 hPa 0,0 l/m 0 min 0 min 0 W/m 16,7 km/h (3 Bft) 85,11 %
28.02.2017 20:22 2,9 C 2,8 C 1,1 C 94 % 15 lf 993,7 hPa 0,0 l/m 0 min 0 min 0 W/m 18,8 km/h (3 Bft) 95,74 %
28.02.2017 20:24 2,9 C 2,8 C 1,1 C 94 % 15 lf 993,7 hPa 0,0 l/m 0 min 0 min 0 W/m 18,8 km/h (3 Bft) 95,74 %
28.02.2017 20:26 2,9 C 2,8 C 1,1 C 94 % 15 lf 993,7 hPa 0,0 l/m 0 min 0 min 0 W/m 14,6 km/h (3 Bft) 95,74 %
28.02.2017 20:28 2,9 C 2,8 C 1,1 C 94 % 15 lf 993,7 hPa 0,0 l/m 0 min 0 min 0 W/m 18,8 km/h (3 Bft) 95,74 %
28.02.2017 20:30 2,9 C 2,8 C 1,1 C 94 % 15 lf 993,6 hPa 0,0 l/m 0 min 0 min 0 W/m 18,8 km/h (3 Bft) 97,83 %
28.02.2017 20:32 2,9 C 2,8 C 1,1 C 94 % 15 lf 993,7 hPa 0,0 l/m 0 min 0 min 0 W/m 14,6 km/h (3 Bft) 95,74 %
28.02.2017 20:34 2,9 C 2,8 C 1,1 C 94 % 15 lf 993,7 hPa 0,0 l/m 0 min 0 min 0 W/m 10,5 km/h (2 Bft) 95,74 %
28.02.2017 20:36 2,9 C 2,8 C 1,1 C 94 % 15 lf 993,7 hPa 0,0 l/m 0 min 0 min 0 W/m 18,8 km/h (3 Bft) 92,73 %
28.02.2017 20:38 2,9 C 2,8 C 1,1 C 94 % 15 lf 993,7 hPa 0,0 l/m 0 min 2 min 0 W/m 14,6 km/h (3 Bft) 97,87 %
28.02.2017 20:40 2,9 C 2,8 C 1,1 C 94 % 15 lf 993,7 hPa 0,0 l/m 0 min 0 min 0 W/m 14,6 km/h (3 Bft) 100,00 %
28.02.2017 20:42 2,9 C 2,8 C 1,1 C 94 % 15 lf 993,7 hPa 0,0 l/m 0 min 0 min 0 W/m 14,6 km/h (3 Bft) 100,00 %
28.02.2017 20:44 2,9 C 2,8 C 1,1 C 94 % 15 lf 993,7 hPa 0,0 l/m 0 min 0 min 0 W/m 18,8 km/h (3 Bft) 97,87 %
28.02.2017 20:46 3,0 C 2,8 C 1,1 C 94 % 15 lf 993,7 hPa 0,0 l/m 0 min 0 min 0 W/m 16,7 km/h (3 Bft) 100,00 %
28.02.2017 20:48 2,9 C 2,8 C 1,1 C 94 % 15 lf 993,7 hPa 0,0 l/m 0 min 0 min 0 W/m 16,7 km/h (3 Bft) 95,74 %
28.02.2017 20:50 2,9 C 2,8 C 1,1 C 94 % 15 lf 993,7 hPa 0,0 l/m 0 min 0 min 0 W/m 14,6 km/h (3 Bft) 100,00 %
28.02.2017 20:52 2,9 C 2,8 C 1,1 C 94 % 15 lf 993,7 hPa 0,0 l/m 0 min 0 min 0 W/m 16,7 km/h (3 Bft) 95,74 %
28.02.2017 20:54 3,0 C 2,8 C 1,1 C 94 % 15 lf 993,7 hPa 0,0 l/m 0 min 0 min 0 W/m 16,7 km/h (3 Bft) 95,74 %
28.02.2017 20:56 3,0 C 2,8 C 1,1 C 94 % 15 lf 993,7 hPa 0,0 l/m 0 min 0 min 0 W/m 18,8 km/h (3 Bft) 100,00 %
28.02.2017 20:58 3,0 C 2,8 C 1,1 C 94 % 15 lf 993,7 hPa 0,0 l/m 0 min 0 min 0 W/m 16,7 km/h (3 Bft) 93,62 %
28.02.2017 21:00 3,0 C 2,8 C 1,1 C 94 % 15 lf 993,8 hPa 0,0 l/m 0 min 0 min 0 W/m 12,6 km/h (3 Bft) 97,87 %
28.02.2017 21:02 3,0 C 2,8 C 1,1 C 94 % 15 lf 993,8 hPa 0,0 l/m 0 min 0 min 0 W/m 12,6 km/h (3 Bft) 100,00 %
28.02.2017 21:04 3,0 C 2,8 C 1,1 C 94 % 15 lf 993,8 hPa 0,0 l/m 0 min 0 min 0 W/m 14,6 km/h (3 Bft) 100,00 %
28.02.2017 21:06 3,0 C 2,8 C 1,1 C 94 % 15 lf 993,8 hPa 0,0 l/m 0 min 0 min 0 W/m 12,6 km/h (3 Bft) 100,00 %
28.02.2017 21:08 3,0 C 2,8 C 1,1 C 94 % 15 lf 993,8 hPa 0,0 l/m 0 min 0 min 0 W/m 14,6 km/h (3 Bft) 100,00 %
28.02.2017 21:10 3,0 C 2,8 C 1,1 C 94 % 15 lf 993,8 hPa 0,0 l/m 0 min 0 min 0 W/m 12,6 km/h (3 Bft) 97,87 %
28.02.2017 21:12 3,0 C 2,8 C 1,1 C 94 % 15 lf 993,8 hPa 0,0 l/m 0 min 0 min 0 W/m 20,9 km/h (4 Bft) 100,00 %
28.02.2017 21:14 3,0 C 2,8 C 1,1 C 94 % 15 lf 993,8 hPa 0,0 l/m 0 min 0 min 0 W/m 14,6 km/h (3 Bft) 100,00 %
28.02.2017 21:16 3,0 C 2,8 C 1,1 C 94 % 15 lf 993,8 hPa 0,0 l/m 0 min 0 min 0 W/m 14,6 km/h (3 Bft) 97,87 %
28.02.2017 21:18 3,0 C 2,8 C 1,1 C 94 % 15 lf 993,8 hPa 0,0 l/m 0 min 0 min 0 W/m 14,6 km/h (3 Bft) 95,74 %
28.02.2017 21:20 3,1 C 2,8 C 1,7 C 94 % 15 lf 993,8 hPa 0,0 l/m 0 min 0 min 0 W/m 18,8 km/h (3 Bft) 97,87 %
28.02.2017 21:22 3,1 C 2,8 C 1,7 C 94 % 15 lf 993,8 hPa 0,0 l/m 0 min 0 min 0 W/m 23,0 km/h (4 Bft) 91,30 %
28.02.2017 21:24 3,1 C 2,8 C 1,7 C 94 % 15 lf 993,8 hPa 0,0 l/m 0 min 0 min 0 W/m 16,7 km/h (3 Bft) 97,87 %
28.02.2017 21:26 3,1 C 2,8 C 1,7 C 94 % 15 lf 993,8 hPa 0,0 l/m 0 min 0 min 0 W/m 20,9 km/h (4 Bft) 95,74 %
28.02.2017 21:28 3,1 C 2,8 C 1,7 C 94 % 15 lf 993,9 hPa 0,0 l/m 0 min 0 min 0 W/m 16,7 km/h (3 Bft) 97,87 %
28.02.2017 21:30 3,1 C 2,8 C 1,7 C 94 % 15 lf 993,9 hPa 0,0 l/m 0 min 0 min 0 W/m 14,6 km/h (3 Bft) 95,74 %
28.02.2017 21:32 3,2 C 2,8 C 1,7 C 94 % 15 lf 993,9 hPa 0,0 l/m 0 min 0 min 0 W/m 20,9 km/h (4 Bft) 97,83 %
28.02.2017 21:34 3,2 C 2,8 C 1,7 C 94 % 15 lf 993,9 hPa 0,0 l/m 0 min 0 min 0 W/m 14,6 km/h (3 Bft) 93,62 %
28.02.2017 21:36 3,2 C 2,8 C 1,7 C 94 % 15 lf 993,9 hPa 0,0 l/m 0 min 0 min 0 W/m 23,0 km/h (4 Bft) 97,87 %
28.02.2017 21:38 3,2 C 3,3 C 1,7 C 94 % 15 lf 994,0 hPa 0,0 l/m 0 min 0 min 0 W/m 20,9 km/h (4 Bft) 95,74 %
28.02.2017 21:40 3,2 C 3,3 C 1,7 C 94 % 15 lf 993,9 hPa 0,0 l/m 0 min 0 min 0 W/m 27,2 km/h (4 Bft) 95,74 %
28.02.2017 21:42 3,2 C 3,3 C 1,7 C 94 % 15 lf 993,9 hPa 0,0 l/m 0 min 0 min 0 W/m 14,6 km/h (3 Bft) 97,87 %
28.02.2017 21:44 3,3 C 3,3 C 1,7 C 94 % 15 lf 994,0 hPa 0,0 l/m 0 min 0 min 0 W/m 20,9 km/h (4 Bft) 97,83 %
28.02.2017 21:46 3,3 C 3,3 C 1,7 C 94 % 15 lf 993,9 hPa 0,0 l/m 0 min 0 min 0 W/m 16,7 km/h (3 Bft) 91,49 %
28.02.2017 21:48 3,3 C 3,3 C 1,7 C 94 % 15 lf 994,0 hPa 0,0 l/m 0 min 0 min 0 W/m 18,8 km/h (3 Bft) 100,00 %
28.02.2017 21:50 3,3 C 3,3 C 1,7 C 94 % 15 lf 994,1 hPa 0,0 l/m 0 min 0 min 0 W/m 23,0 km/h (4 Bft) 97,87 %
28.02.2017 21:52 3,3 C 3,3 C 1,7 C 94 % 15 lf 994,2 hPa 0,0 l/m 0 min 0 min 0 W/m 18,8 km/h (3 Bft) 97,87 %
28.02.2017 21:54 3,4 C 3,3 C 1,7 C 94 % 15 lf 994,1 hPa 0,0 l/m 0 min 0 min 0 W/m 18,8 km/h (3 Bft) 100,00 %
28.02.2017 21:56 3,4 C 3,3 C 1,7 C 94 % 15 lf 994,1 hPa 0,0 l/m 0 min 0 min 0 W/m 18,8 km/h (3 Bft) 100,00 %
28.02.2017 21:58 3,4 C 3,3 C 1,7 C 94 % 15 lf 994,1 hPa 0,0 l/m 0 min 0 min 0 W/m 29,3 km/h (5 Bft) 100,00 %
28.02.2017 22:00 3,4 C 3,3 C 2,2 C 94 % 15 lf 994,2 hPa 0,0 l/m 0 min 0 min 0 W/m 18,8 km/h (3 Bft) 100,00 %
28.02.2017 22:02 3,4 C 3,3 C 2,2 C 94 % 15 lf 994,2 hPa 0,0 l/m 0 min 0 min 0 W/m 18,8 km/h (3 Bft) 95,74 %
28.02.2017 22:04 3,4 C 3,3 C 2,2 C 94 % 15 lf 994,2 hPa 0,0 l/m 0 min 0 min 0 W/m 23,0 km/h (4 Bft) 97,87 %
28.02.2017 22:06 3,5 C 3,3 C 2,2 C 94 % 15 lf 994,2 hPa 0,0 l/m 0 min 0 min 0 W/m 16,7 km/h (3 Bft) 97,83 %
28.02.2017 22:08 3,5 C 3,3 C 2,2 C 94 % 15 lf 994,2 hPa 0,0 l/m 0 min 0 min 0 W/m 23,0 km/h (4 Bft) 100,00 %
28.02.2017 22:10 3,5 C 3,3 C 2,2 C 94 % 15 lf 994,2 hPa 0,0 l/m 0 min 0 min 0 W/m 20,9 km/h (4 Bft) 97,87 %
28.02.2017 22:12 3,6 C 3,3 C 2,2 C 94 % 15 lf 994,1 hPa 0,0 l/m 0 min 0 min 0 W/m 25,1 km/h (4 Bft) 100,00 %
28.02.2017 22:14 3,6 C 3,3 C 2,2 C 94 % 14 lf 994,2 hPa 0,0 l/m 0 min 0 min 0 W/m 23,0 km/h (4 Bft) 95,74 %
28.02.2017 22:16 3,6 C 3,3 C 2,2 C 94 % 13 lf 994,2 hPa 0,0 l/m 0 min 0 min 0 W/m 20,9 km/h (4 Bft) 93,62 %
28.02.2017 22:18 3,6 C 3,3 C 2,2 C 94 % 13 lf 994,1 hPa 0,0 l/m 0 min 0 min 0 W/m 18,8 km/h (3 Bft) 97,83 %
28.02.2017 22:20 3,7 C 3,3 C 2,2 C 94 % 12 lf 994,2 hPa 0,0 l/m 0 min 0 min 0 W/m 14,6 km/h (3 Bft) 97,87 %
28.02.2017 22:22 3,7 C 3,3 C 2,2 C 94 % 11 lf 994,2 hPa 0,0 l/m 0 min 0 min 0 W/m 20,9 km/h (4 Bft) 95,74 %
28.02.2017 22:24 3,7 C 3,3 C 2,2 C 94 % 9 lf 994,3 hPa 0,0 l/m 0 min 0 min 0 W/m 16,7 km/h (3 Bft) 97,87 %
28.02.2017 22:26 3,7 C 3,3 C 2,2 C 94 % 8 lf 994,2 hPa 0,0 l/m 0 min 0 min 0 W/m 23,0 km/h (4 Bft) 91,49 %
28.02.2017 22:28 3,8 C 3,9 C 2,2 C 94 % 7 lf 994,3 hPa 0,0 l/m 0 min 0 min 0 W/m 23,0 km/h (4 Bft) 95,74 %
28.02.2017 22:30 3,8 C 3,9 C 2,2 C 94 % 5 lf 994,2 hPa 0,0 l/m 0 min 0 min 0 W/m 18,8 km/h (3 Bft) 93,48 %
28.02.2017 22:32 3,8 C 3,9 C 2,2 C 93 % 4 lf 994,3 hPa 0,0 l/m 0 min 0 min 0 W/m 25,1 km/h (4 Bft) 93,62 %
28.02.2017 22:34 3,8 C 3,9 C 2,2 C 93 % 4 lf 994,3 hPa 0,0 l/m 0 min 0 min 0 W/m 31,4 km/h (5 Bft) 89,36 %
28.02.2017 22:36 3,9 C 3,9 C 2,8 C 93 % 3 lf 994,3 hPa 0,0 l/m 0 min 0 min 0 W/m 27,2 km/h (4 Bft) 93,62 %
28.02.2017 22:38 3,9 C 3,9 C 2,8 C 93 % 3 lf 994,2 hPa 0,0 l/m 0 min 0 min 0 W/m 23,0 km/h (4 Bft) 93,62 %
28.02.2017 22:40 3,9 C 3,9 C 2,8 C 93 % 2 lf 994,4 hPa 0,0 l/m 0 min 0 min 0 W/m 39,7 km/h (6 Bft) 91,49 %
28.02.2017 22:42 4,0 C 3,9 C 2,8 C 93 % 1 lf 994,4 hPa 0,0 l/m 0 min 0 min 0 W/m 27,2 km/h (4 Bft) 93,48 %
28.02.2017 22:44 4,1 C 3,9 C 2,8 C 93 % 0 lf 994,4 hPa 0,0 l/m 0 min 0 min 0 W/m 39,7 km/h (6 Bft) 91,49 %
28.02.2017 22:46 4,1 C 3,9 C 2,8 C 92 % 3 lf 994,5 hPa 0,0 l/m 0 min 0 min 0 W/m 35,6 km/h (5 Bft) 91,49 %
28.02.2017 22:48 4,1 C 3,9 C 2,8 C 92 % 3 lf 994,5 hPa 0,0 l/m 0 min 0 min 0 W/m 35,6 km/h (5 Bft) 91,49 %
28.02.2017 22:50 4,2 C 3,9 C 2,8 C 92 % 3 lf 994,5 hPa 0,0 l/m 0 min 2 min 0 W/m 31,4 km/h (5 Bft) 93,62 %
28.02.2017 22:52 4,2 C 3,9 C 2,2 C 92 % 7 lf 994,5 hPa 0,0 l/m 0 min 2 min 0 W/m 29,3 km/h (5 Bft) 87,23 %
28.02.2017 22:54 4,2 C 3,9 C 2,2 C 91 % 14 lf 994,5 hPa 0,0 l/m 0 min 2 min 0 W/m 31,4 km/h (5 Bft) 91,30 %
28.02.2017 22:56 4,2 C 3,3 C 2,2 C 91 % 15 lf 994,5 hPa 0,0 l/m 0 min 2 min 0 W/m 25,1 km/h (4 Bft) 89,36 %
28.02.2017 22:58 4,2 C 3,3 C 2,2 C 91 % 15 lf 994,5 hPa 0,0 l/m 0 min 2 min 0 W/m 29,3 km/h (5 Bft) 93,62 %
28.02.2017 23:00 4,2 C 3,3 C 2,2 C 90 % 15 lf 994,5 hPa 0,2 l/m 0 min 2 min 0 W/m 23,0 km/h (4 Bft) 91,49 %
28.02.2017 23:02 4,1 C 3,3 C 2,2 C 90 % 15 lf 994,4 hPa 0,0 l/m 0 min 2 min 0 W/m 25,1 km/h (4 Bft) 93,62 %
28.02.2017 23:04 4,1 C 3,3 C 1,7 C 90 % 15 lf 994,5 hPa 0,0 l/m 0 min 2 min 0 W/m 29,3 km/h (5 Bft) 91,49 %
28.02.2017 23:06 4,1 C 3,3 C 1,7 C 90 % 15 lf 994,4 hPa 0,0 l/m 0 min 2 min 0 W/m 23,0 km/h (4 Bft) 91,30 %
28.02.2017 23:08 4,0 C 2,8 C 1,7 C 90 % 15 lf 994,5 hPa 0,0 l/m 0 min 2 min 0 W/m 25,1 km/h (4 Bft) 93,62 %
28.02.2017 23:10 3,9 C 2,8 C 1,7 C 90 % 15 lf 994,5 hPa 0,2 l/m 0 min 2 min 0 W/m 20,9 km/h (4 Bft) 91,49 %
28.02.2017 23:12 3,8 C 2,8 C 1,7 C 90 % 15 lf 994,5 hPa 0,0 l/m 0 min 2 min 0 W/m 18,8 km/h (3 Bft) 91,49 %
28.02.2017 23:14 3,8 C 2,8 C 1,7 C 90 % 15 lf 994,6 hPa 0,0 l/m 0 min 2 min 0 W/m 18,8 km/h (3 Bft) 95,74 %
28.02.2017 23:16 3,7 C 2,8 C 1,7 C 90 % 15 lf 994,7 hPa 0,0 l/m 0 min 2 min 0 W/m 14,6 km/h (3 Bft) 91,30 %
28.02.2017 23:18 3,7 C 2,8 C 1,7 C 90 % 15 lf 994,6 hPa 0,2 l/m 0 min 2 min 0 W/m 18,8 km/h (3 Bft) 93,62 %
28.02.2017 23:20 3,6 C 2,8 C 1,7 C 90 % 15 lf 994,6 hPa 0,0 l/m 0 min 2 min 0 W/m 25,1 km/h (4 Bft) 95,74 %
28.02.2017 23:22 3,6 C 2,8 C 1,7 C 90 % 15 lf 994,6 hPa 0,0 l/m 0 min 2 min 0 W/m 29,3 km/h (5 Bft) 95,74 %
28.02.2017 23:24 3,5 C 2,8 C 1,7 C 90 % 15 lf 994,6 hPa 0,0 l/m 0 min 2 min 0 W/m 23,0 km/h (4 Bft) 95,74 %
28.02.2017 23:26 3,4 C 2,8 C 1,7 C 90 % 15 lf 994,6 hPa 0,0 l/m 0 min 2 min 0 W/m 20,9 km/h (4 Bft) 87,23 %
28.02.2017 23:28 3,3 C 2,8 C 1,1 C 90 % 15 lf 994,7 hPa 0,2 l/m 0 min 2 min 0 W/m 23,0 km/h (4 Bft) 95,65 %
28.02.2017 23:30 3,3 C 2,8 C 1,1 C 91 % 15 lf 994,6 hPa 0,0 l/m 0 min 2 min 0 W/m 18,8 km/h (3 Bft) 93,62 %
28.02.2017 23:32 3,2 C 2,8 C 1,1 C 91 % 15 lf 994,6 hPa 0,0 l/m 0 min 2 min 0 W/m 14,6 km/h (3 Bft) 95,74 %
28.02.2017 23:34 3,2 C 2,2 C 1,1 C 91 % 15 lf 994,6 hPa 0,0 l/m 0 min 2 min 0 W/m 25,1 km/h (4 Bft) 91,49 %
28.02.2017 23:36 3,1 C 2,2 C 1,1 C 91 % 15 lf 994,6 hPa 0,0 l/m 0 min 2 min 0 W/m 20,9 km/h (4 Bft) 97,87 %
28.02.2017 23:38 3,1 C 2,2 C 1,1 C 91 % 15 lf 994,6 hPa 0,0 l/m 0 min 2 min 0 W/m 18,8 km/h (3 Bft) 95,74 %
28.02.2017 23:40 3,1 C 2,2 C 1,1 C 91 % 15 lf 994,6 hPa 0,2 l/m 0 min 2 min 0 W/m 16,7 km/h (3 Bft) 95,65 %
28.02.2017 23:42 3,1 C 2,2 C 1,1 C 92 % 15 lf 994,8 hPa 0,0 l/m 0 min 2 min 0 W/m 20,9 km/h (4 Bft) 91,49 %
28.02.2017 23:44 3,0 C 2,2 C 1,1 C 92 % 15 lf 994,8 hPa 0,0 l/m 0 min 2 min 0 W/m 20,9 km/h (4 Bft) 97,87 %
28.02.2017 23:46 3,0 C 2,2 C 1,1 C 92 % 15 lf 994,7 hPa 0,0 l/m 0 min 2 min 0 W/m 23,0 km/h (4 Bft) 97,87 %
28.02.2017 23:48 2,9 C 2,2 C 1,1 C 92 % 15 lf 994,8 hPa 0,2 l/m 0 min 2 min 0 W/m 25,1 km/h (4 Bft) 97,87 %
28.02.2017 23:50 2,9 C 2,2 C 1,1 C 92 % 15 lf 994,8 hPa 0,0 l/m 0 min 2 min 0 W/m 18,8 km/h (3 Bft) 97,87 %
28.02.2017 23:52 2,9 C 2,2 C 1,1 C 92 % 15 lf 994,7 hPa 0,0 l/m 0 min 2 min 0 W/m 23,0 km/h (4 Bft) 100,00 %
28.02.2017 23:54 2,8 C 2,2 C 1,1 C 92 % 15 lf 994,8 hPa 0,2 l/m 0 min 2 min 0 W/m 16,7 km/h (3 Bft) 100,00 %
28.02.2017 23:56 2,8 C 2,2 C 1,1 C 92 % 15 lf 994,8 hPa 0,0 l/m 0 min 2 min 0 W/m 14,6 km/h (3 Bft) 97,87 %
28.02.2017 23:58 2,8 C 2,2 C 1,1 C 92 % 15 lf 994,8 hPa 0,0 l/m 0 min 2 min 0 W/m 16,7 km/h (3 Bft) 97,87 %
_ Min-Zeit 23:54 19:56 18:30 12:22 00:00 14:36 - - - - 17:42 08:26
Minimum _ 2,8 C 2,2 C 1,1 C 64 % 0 lf 988,1 hPa - - - - 6,3 km/h (2 Bft) 84,78 %
_ Max-Zeit 12:14 12:08 11:56 19:20 02:26 23:42 02:40 08:42 00:52 12:14 02:28 00:06
Maximum _ 9,2 C 17,2 C 10,0 C 94 % 15 lf 994,8 hPa 0,2 l/m 2 min 2 min 930 W/m 66,9 km/h
W-SW (8 Bft)
100,00 %
Durchschnitt _ 5,6 C 6,3 C 4,5 C 81 % 5 lf 990,4 hPa #4,2 l/m #6:44 h #3:42 h 311 W/m 27,7 km/h (4 Bft) 95,80 %
© 2017 W. Hausmann